Observation data for Amarillo 7 South Southeast on 02/16/2017      Previous  Date       Current Mesonet Observations  Soil Data  Daily Summary Page  Observations in Plain Language
KAM1 160600Z 23009KT M01/M04 A301 RMK A01 T10071035  RH  081%=      5-min Rain = 0
KAM1 160601Z 23009KT M01/M04 A301 RMK A01 T10071035  RH  081%=      5-min Rain = 0
KAM1 160602Z 23008KT M01/M03 A301 RMK A01 T10061034  RH  082%=      5-min Rain = 0
KAM1 160603Z 24008KT M01/M03 A301 RMK A01 T10061033  RH  082%=      5-min Rain = 0
KAM1 160604Z 24008KT M01/M03 A301 RMK A01 T10061033  RH  082%=      5-min Rain = 0
KAM1 160605Z 24007KT M01/M03 A301 RMK A01 T10061034  RH  082%=      5-min Rain = 0
KAM1 160606Z 24007KT M01/M03 A301 RMK A01 T10061033  RH  082%=      5-min Rain = 0
KAM1 160607Z 24007KT M01/M03 A301 RMK A01 T10071034  RH  082%=      5-min Rain = 0
KAM1 160608Z 24007KT M01/M03 A3009 RMK A01 T10071034  RH  082%=      5-min Rain = 0
KAM1 160609Z 24008KT M01/M03 A3009 RMK A01 T10081034  RH  082%=      5-min Rain = 0
KAM1 160610Z 24008KT M01/M04 A3009 RMK A01 T10081035  RH  082%=      5-min Rain = 0
KAM1 160611Z 24008KT M01/M04 A3009 RMK A01 T10091035  RH  083%=      5-min Rain = 0
KAM1 160612Z 24009KT M01/M03 A3009 RMK A01 T10091034  RH  083%=      5-min Rain = 0
KAM1 160613Z 23009KT M01/M03 A3009 RMK A01 T10091034  RH  083%=      5-min Rain = 0
KAM1 160614Z 23009KT M01/M03 A3009 RMK A01 T10081033  RH  083%=      5-min Rain = 0
KAM1 160615Z 23009KT M01/M03 A3009 RMK A01 T10071034  RH  082%=      5-min Rain = 0
KAM1 160616Z 23009KT M01/M03 A3009 RMK A01 T10071034  RH  082%=      5-min Rain = 0
KAM1 160617Z 23009KT M01/M03 A3009 RMK A01 T10061033  RH  082%=      5-min Rain = 0
KAM1 160618Z 23009KT M01/M03 A3009 RMK A01 T10051033  RH  082%=      5-min Rain = 0
KAM1 160619Z 23009KT M00/M03 A3009 RMK A01 T10041032  RH  081%=      5-min Rain = 0
KAM1 160620Z 23009KT M00/M03 A3009 RMK A01 T10041032  RH  081%=      5-min Rain = 0
KAM1 160621Z 23009KT M00/M03 A3009 RMK A01 T10031032  RH  081%=      5-min Rain = 0
KAM1 160622Z 23008KT M00/M03 A3009 RMK A01 T10031032  RH  081%=      5-min Rain = 0
KAM1 160623Z 23008KT M00/M03 A3009 RMK A01 T10031032  RH  081%=      5-min Rain = 0
KAM1 160624Z 23008KT M00/M03 A3009 RMK A01 T10041033  RH  081%=      5-min Rain = 0
KAM1 160625Z 24009KT M00/M03 A3009 RMK A01 T10041033  RH  081%=      5-min Rain = 0
KAM1 160626Z 23009KT M01/M03 A3009 RMK A01 T10051034  RH  081%=      5-min Rain = 0
KAM1 160627Z 23009KT M01/M03 A3009 RMK A01 T10051034  RH  081%=      5-min Rain = 0
KAM1 160628Z 23009KT M01/M03 A3009 RMK A01 T10051034  RH  081%=      5-min Rain = 0
KAM1 160629Z 24008KT M01/M03 A3009 RMK A01 T10061034  RH  081%=      5-min Rain = 0
KAM1 160630Z 24008KT M01/M04 A3009 RMK A01 T10061035  RH  081%=      5-min Rain = 0
KAM1 160631Z 24008KT M01/M03 A3009 RMK A01 T10061034  RH  081%=      5-min Rain = 0
KAM1 160632Z 24008KT M01/M03 A3009 RMK A01 T10061034  RH  081%=      5-min Rain = 0
KAM1 160633Z 24008KT M01/M03 A3009 RMK A01 T10061034  RH  081%=      5-min Rain = 0
KAM1 160634Z 24008KT M01/M04 A3009 RMK A01 T10061035  RH  081%=      5-min Rain = 0
KAM1 160635Z 24008KT M01/M04 A3009 RMK A01 T10061035  RH  081%=      5-min Rain = 0
KAM1 160636Z 24008KT M01/M04 A3009 RMK A01 T10061035  RH  081%=      5-min Rain = 0
KAM1 160637Z 24008KT M01/M04 A3009 RMK A01 T10071036  RH  081%=      5-min Rain = 0
KAM1 160638Z 24008KT M01/M04 A3009 RMK A01 T10071036  RH  081%=      5-min Rain = 0
KAM1 160639Z 24008KT M01/M04 A3009 RMK A01 T10081036  RH  081%=      5-min Rain = 0
KAM1 160640Z 24008KT M01/M04 A3009 RMK A01 T10081036  RH  081%=      5-min Rain = 0
KAM1 160641Z 24008KT M01/M04 A3009 RMK A01 T10091037  RH  081%=      5-min Rain = 0
KAM1 160642Z 24008KT M01/M04 A3009 RMK A01 T10091037  RH  081%=      5-min Rain = 0
KAM1 160643Z 24007KT M01/M04 A3009 RMK A01 T10091037  RH  081%=      5-min Rain = 0
KAM1 160644Z 24007KT M01/M04 A3009 RMK A01 T10101038  RH  082%=      5-min Rain = 0
KAM1 160645Z 24007KT M01/M04 A3009 RMK A01 T10111038  RH  082%=      5-min Rain = 0
KAM1 160646Z 24007KT M01/M04 A3009 RMK A01 T10111038  RH  082%=      5-min Rain = 0
KAM1 160647Z 24008KT M01/M04 A3009 RMK A01 T10121039  RH  082%=      5-min Rain = 0
KAM1 160648Z 24008KT M01/M04 A3009 RMK A01 T10121039  RH  082%=      5-min Rain = 0
KAM1 160649Z 23008KT M01/M04 A3009 RMK A01 T10131039  RH  082%=      5-min Rain = 0
KAM1 160650Z 23008KT M01/M04 A3008 RMK A01 T10141040  RH  082%=      5-min Rain = 0
KAM1 160651Z 23008KT M01/M04 A3008 RMK A01 T10141040  RH  083%=      5-min Rain = 0
KAM1 160652Z 23008KT M01/M04 A3008 RMK A01 T10141039  RH  083%=      5-min Rain = 0
KAM1 160653Z 23009KT M01/M04 A3008 RMK A01 T10141039  RH  083%=      5-min Rain = 0
KAM1 160654Z 23009KT M01/M04 A3008 RMK A01 T10141039  RH  083%=      5-min Rain = 0
KAM1 160655Z 23009KT M01/M04 A3008 RMK A01 T10131038  RH  083%=      5-min Rain = 0
KAM1 160656Z 23009KT M01/M04 A3008 RMK A01 T10131038  RH  083%=      5-min Rain = 0
KAM1 160657Z 23009KT M01/M04 A3008 RMK A01 T10121037  RH  083%=      5-min Rain = 0
KAM1 160658Z 23009KT M01/M04 A3008 RMK A01 T10121037  RH  083%=      5-min Rain = 0
KAM1 160659Z 23009KT M01/M04 A3008 RMK A01 T10111036  RH  083%=      5-min Rain = 0
KAM1 160700Z 23009KT M01/M04 A3008 RMK A01 T10111036  RH  083%=      5-min Rain = 0
KAM1 160701Z 24009KT M01/M04 A3008 RMK A01 T10101035  RH  083%=      5-min Rain = 0
KAM1 160702Z 23009KT M01/M04 A3008 RMK A01 T10101035  RH  083%=      5-min Rain = 0
KAM1 160703Z 23009KT M01/M04 A3008 RMK A01 T10091035  RH  083%=      5-min Rain = 0
KAM1 160704Z 23009KT M01/M04 A3008 RMK A01 T10091035  RH  083%=      5-min Rain = 0
KAM1 160705Z 24009KT M01/M03 A3008 RMK A01 T10081034  RH  082%=      5-min Rain = 0
KAM1 160706Z 24008KT M01/M03 A3008 RMK A01 T10071034  RH  082%=      5-min Rain = 0
KAM1 160707Z 24008KT M01/M03 A3008 RMK A01 T10071034  RH  082%=      5-min Rain = 0
KAM1 160708Z 24008KT M01/M03 A3008 RMK A01 T10071034  RH  082%=      5-min Rain = 0
KAM1 160709Z 24008KT M01/M03 A3008 RMK A01 T10071034  RH  082%=      5-min Rain = 0
KAM1 160710Z 24008KT M01/M04 A3008 RMK A01 T10081035  RH  082%=      5-min Rain = 0
KAM1 160711Z 24009KT M01/M03 A3008 RMK A01 T10071034  RH  082%=      5-min Rain = 0
KAM1 160712Z 24009KT M01/M04 A3008 RMK A01 T10081035  RH  082%=      5-min Rain = 0
KAM1 160713Z 24009KT M01/M04 A3008 RMK A01 T10081035  RH  082%=      5-min Rain = 0
KAM1 160714Z 24009KT M01/M04 A3008 RMK A01 T10081035  RH  082%=      5-min Rain = 0
KAM1 160715Z 24009KT M01/M04 A3007 RMK A01 T10081035  RH  082%=      5-min Rain = 0
KAM1 160716Z 24009KT M01/M04 A3007 RMK A01 T10071035  RH  082%=      5-min Rain = 0
KAM1 160717Z 24008KT M01/M04 A3007 RMK A01 T10071035  RH  082%=      5-min Rain = 0
KAM1 160718Z 24008KT M01/M04 A3007 RMK A01 T10071035  RH  081%=      5-min Rain = 0
KAM1 160719Z 24008KT M01/M04 A3007 RMK A01 T10071035  RH  081%=      5-min Rain = 0
KAM1 160720Z 24008KT M01/M04 A3007 RMK A01 T10081036  RH  081%=      5-min Rain = 0
KAM1 160721Z 24008KT M01/M04 A3007 RMK A01 T10081036  RH  082%=      5-min Rain = 0
KAM1 160722Z 24008KT M01/M04 A3007 RMK A01 T10091036  RH  082%=      5-min Rain = 0
KAM1 160723Z 24008KT M01/M04 A3007 RMK A01 T10101037  RH  082%=      5-min Rain = 0
KAM1 160724Z 24008KT M01/M04 A3007 RMK A01 T10101037  RH  082%=      5-min Rain = 0
KAM1 160725Z 23008KT M01/M04 A3007 RMK A01 T10111037  RH  082%=      5-min Rain = 0
KAM1 160726Z 23008KT M01/M04 A3007 RMK A01 T10111037  RH  082%=      5-min Rain = 0
KAM1 160727Z 23008KT M01/M04 A3007 RMK A01 T10111037  RH  083%=      5-min Rain = 0
KAM1 160728Z 23008KT M01/M04 A3007 RMK A01 T10101036  RH  083%=      5-min Rain = 0
KAM1 160729Z 23008KT M01/M04 A3007 RMK A01 T10091035  RH  083%=      5-min Rain = 0
KAM1 160730Z 23008KT M01/M03 A3007 RMK A01 T10081034  RH  083%=      5-min Rain = 0
KAM1 160731Z 24008KT M01/M03 A3007 RMK A01 T10071033  RH  083%=      5-min Rain = 0
KAM1 160732Z 24008KT M01/M03 A3007 RMK A01 T10061032  RH  082%=      5-min Rain = 0
KAM1 160733Z 24008KT M01/M03 A3007 RMK A01 T10051032  RH  082%=      5-min Rain = 0
KAM1 160734Z 24008KT M01/M03 A3007 RMK A01 T10051032  RH  082%=      5-min Rain = 0
KAM1 160735Z 24008KT M00/M03 A3007 RMK A01 T10041032  RH  081%=      5-min Rain = 0
KAM1 160736Z 24008KT M00/M03 A3007 RMK A01 T10041032  RH  081%=      5-min Rain = 0
KAM1 160737Z 24008KT M00/M03 A3007 RMK A01 T10041032  RH  081%=      5-min Rain = 0
KAM1 160738Z 24008KT M00/M03 A3007 RMK A01 T10041033  RH  081%=      5-min Rain = 0
KAM1 160739Z 24008KT M00/M03 A3007 RMK A01 T10041033  RH  081%=      5-min Rain = 0
KAM1 160740Z 24008KT M00/M03 A3007 RMK A01 T10041033  RH  081%=      5-min Rain = 0
KAM1 160741Z 24008KT M00/M03 A3007 RMK A01 T10041033  RH  081%=      5-min Rain = 0
KAM1 160742Z 24008KT M00/M03 A3007 RMK A01 T10031033  RH  081%=      5-min Rain = 0
KAM1 160743Z 24008KT M00/M03 A3007 RMK A01 T10041033  RH  081%=      5-min Rain = 0
KAM1 160744Z 24008KT M01/M03 A3007 RMK A01 T10051034  RH  081%=      5-min Rain = 0
KAM1 160745Z 24008KT M01/M03 A3007 RMK A01 T10051034  RH  081%=      5-min Rain = 0
KAM1 160746Z 24008KT M01/M03 A3007 RMK A01 T10051034  RH  081%=      5-min Rain = 0
KAM1 160747Z 24008KT M01/M03 A3007 RMK A01 T10051034  RH  081%=      5-min Rain = 0
KAM1 160748Z 24008KT M01/M03 A3007 RMK A01 T10051034  RH  081%=      5-min Rain = 0
KAM1 160749Z 24008KT M01/M04 A3007 RMK A01 T10051035  RH  081%=      5-min Rain = 0
KAM1 160750Z 24008KT M01/M04 A3007 RMK A01 T10051035  RH  081%=      5-min Rain = 0
KAM1 160751Z 24007KT M01/M03 A3007 RMK A01 T10051034  RH  081%=      5-min Rain = 0
KAM1 160752Z 24007KT M01/M03 A3007 RMK A01 T10051034  RH  081%=      5-min Rain = 0
KAM1 160753Z 24007KT M01/M03 A3007 RMK A01 T10051034  RH  081%=      5-min Rain = 0
KAM1 160754Z 24007KT M01/M03 A3007 RMK A01 T10051034  RH  081%=      5-min Rain = 0
KAM1 160755Z 24007KT M01/M03 A3007 RMK A01 T10061034  RH  081%=      5-min Rain = 0
KAM1 160756Z 24007KT M01/M04 A3007 RMK A01 T10061035  RH  081%=      5-min Rain = 0
KAM1 160757Z 24007KT M01/M04 A3007 RMK A01 T10071036  RH  081%=      5-min Rain = 0
KAM1 160758Z 24007KT M01/M04 A3007 RMK A01 T10071036  RH  081%=      5-min Rain = 0
KAM1 160759Z 24008KT M01/M04 A3007 RMK A01 T10081036  RH  081%=      5-min Rain = 0
KAM1 160800Z 24008KT M01/M04 A3007 RMK A01 T10081036  RH  081%=      5-min Rain = 0
KAM1 160801Z 24008KT M01/M04 A3007 RMK A01 T10091037  RH  081%=      5-min Rain = 0
KAM1 160802Z 24008KT M01/M04 A3007 RMK A01 T10091037  RH  081%=      5-min Rain = 0
KAM1 160803Z 24008KT M01/M04 A3007 RMK A01 T10091037  RH  081%=      5-min Rain = 0
KAM1 160804Z 24008KT M01/M04 A3007 RMK A01 T10101037  RH  082%=      5-min Rain = 0
KAM1 160805Z 24008KT M01/M04 A3007 RMK A01 T10101037  RH  082%=      5-min Rain = 0
KAM1 160806Z 24008KT M01/M04 A3007 RMK A01 T10101037  RH  082%=      5-min Rain = 0
KAM1 160807Z 24008KT M01/M04 A3007 RMK A01 T10091036  RH  082%=      5-min Rain = 0
KAM1 160808Z 24008KT M01/M04 A3007 RMK A01 T10091036  RH  082%=      5-min Rain = 0
KAM1 160809Z 24007KT M01/M04 A3007 RMK A01 T10071035  RH  082%=      5-min Rain = 0
KAM1 160810Z 24008KT M01/M04 A3007 RMK A01 T10071035  RH  081%=      5-min Rain = 0
KAM1 160811Z 25007KT M01/M04 A3007 RMK A01 T10061035  RH  081%=      5-min Rain = 0
KAM1 160812Z 25007KT M01/M04 A3007 RMK A01 T10061035  RH  081%=      5-min Rain = 0
KAM1 160813Z 25007KT M01/M04 A3007 RMK A01 T10071035  RH  081%=      5-min Rain = 0
KAM1 160814Z 25008KT M01/M04 A3007 RMK A01 T10071035  RH  081%=      5-min Rain = 0
KAM1 160815Z 24008KT M01/M04 A3007 RMK A01 T10071036  RH  081%=      5-min Rain = 0
KAM1 160816Z 24008KT M01/M04 A3007 RMK A01 T10071035  RH  081%=      5-min Rain = 0
KAM1 160817Z 24009KT M01/M04 A3007 RMK A01 T10071035  RH  081%=      5-min Rain = 0
KAM1 160818Z 24008KT M01/M04 A3006 RMK A01 T10071035  RH  081%=      5-min Rain = 0
KAM1 160819Z 24009KT M01/M04 A3006 RMK A01 T10061035  RH  081%=      5-min Rain = 0
KAM1 160820Z 24009KT M01/M04 A3006 RMK A01 T10061035  RH  081%=      5-min Rain = 0
KAM1 160821Z 24008KT M01/M04 A3006 RMK A01 T10061035  RH  081%=      5-min Rain = 0
KAM1 160822Z 24008KT M01/M04 A3006 RMK A01 T10061035  RH  081%=      5-min Rain = 0
KAM1 160823Z 24008KT M01/M03 A3006 RMK A01 T10051034  RH  081%=      5-min Rain = 0
KAM1 160824Z 24008KT M01/M04 A3006 RMK A01 T10061035  RH  081%=      5-min Rain = 0
KAM1 160825Z 24008KT M01/M04 A3006 RMK A01 T10051035  RH  081%=      5-min Rain = 0
KAM1 160826Z 25008KT M01/M04 A3006 RMK A01 T10061035  RH  081%=      5-min Rain = 0
KAM1 160827Z 25008KT M01/M04 A3006 RMK A01 T10061036  RH  081%=      5-min Rain = 0
KAM1 160828Z 25008KT M01/M04 A3006 RMK A01 T10071036  RH  081%=      5-min Rain = 0
KAM1 160829Z 25008KT M01/M04 A3006 RMK A01 T10071036  RH  081%=      5-min Rain = 0
KAM1 160830Z 25008KT M01/M04 A3006 RMK A01 T10081037  RH  081%=      5-min Rain = 0
KAM1 160831Z 25009KT M01/M04 A3006 RMK A01 T10091037  RH  081%=      5-min Rain = 0
KAM1 160832Z 25009KT M01/M04 A3006 RMK A01 T10091037  RH  081%=      5-min Rain = 0
KAM1 160833Z 25010KT M01/M04 A3006 RMK A01 T10081036  RH  081%=      5-min Rain = 0
KAM1 160834Z 25010KT M01/M04 A3006 RMK A01 T10061035  RH  081%=      5-min Rain = 0
KAM1 160835Z 25009KT M01/M03 A3006 RMK A01 T10051034  RH  081%=      5-min Rain = 0
KAM1 160836Z 25010KT M00/M03 A3006 RMK A01 T10031034  RH  080%=      5-min Rain = 0
KAM1 160837Z 25009KT M00/M03 A3006 RMK A01 T10021033  RH  080%=      5-min Rain = 0
KAM1 160838Z 25009KT M00/M03 A3006 RMK A01 T10011033  RH  079%=      5-min Rain = 0
KAM1 160839Z 25009KT M00/M03 A3006 RMK A01 T10011033  RH  079%=      5-min Rain = 0
KAM1 160840Z 25009KT M00/M03 A3006 RMK A01 T10021034  RH  079%=      5-min Rain = 0
KAM1 160841Z 25009KT M00/M03 A3006 RMK A01 T10021034  RH  079%=      5-min Rain = 0
KAM1 160842Z 25009KT M00/M03 A3006 RMK A01 T10021034  RH  079%=      5-min Rain = 0
KAM1 160843Z 25009KT M00/M03 A3006 RMK A01 T10031034  RH  079%=      5-min Rain = 0
KAM1 160844Z 24009KT M00/M04 A3006 RMK A01 T10031035  RH  079%=      5-min Rain = 0
KAM1 160845Z 24008KT M00/M04 A3006 RMK A01 T10041035  RH  080%=      5-min Rain = 0
KAM1 160846Z 24008KT M01/M04 A3006 RMK A01 T10051035  RH  080%=      5-min Rain = 0
KAM1 160847Z 24008KT M01/M04 A3006 RMK A01 T10061035  RH  080%=      5-min Rain = 0
KAM1 160848Z 24008KT M01/M04 A3006 RMK A01 T10061035  RH  081%=      5-min Rain = 0
KAM1 160849Z 24009KT M01/M04 A3006 RMK A01 T10061035  RH  081%=      5-min Rain = 0
KAM1 160850Z 24008KT M01/M03 A3006 RMK A01 T10051034  RH  081%=      5-min Rain = 0
KAM1 160851Z 24009KT M01/M03 A3006 RMK A01 T10051034  RH  081%=      5-min Rain = 0
KAM1 160852Z 24009KT M00/M03 A3006 RMK A01 T10041034  RH  081%=      5-min Rain = 0
KAM1 160853Z 24009KT M00/M03 A3006 RMK A01 T10041033  RH  081%=      5-min Rain = 0
KAM1 160854Z 24010KT M00/M03 A3006 RMK A01 T10031032  RH  080%=      5-min Rain = 0
KAM1 160855Z 24009KT M00/M03 A3005 RMK A01 T10021032  RH  080%=      5-min Rain = 0
KAM1 160856Z 24009KT M00/M03 A3005 RMK A01 T10011033  RH  080%=      5-min Rain = 0
KAM1 160857Z 24010KT M00/M03 A3005 RMK A01 T10011032  RH  079%=      5-min Rain = 0
KAM1 160858Z 24009KT 00/03 A3005 RMK A01 T00-00-32  RH  079%=      5-min Rain = 0
KAM1 160859Z 24010KT 00/M03 A3005 RMK A01 T00011032  RH  079%=      5-min Rain = 0
KAM1 160900Z 24010KT 00/M03 A3005 RMK A01 T00021032  RH  078%=      5-min Rain = 0
KAM1 160901Z 24010KT 00/M03 A3005 RMK A01 T00021032  RH  078%=      5-min Rain = 0
KAM1 160902Z 24009KT 00/M03 A3005 RMK A01 T00021032  RH  078%=      5-min Rain = 0
KAM1 160903Z 24010KT 00/M03 A3005 RMK A01 T00021032  RH  078%=      5-min Rain = 0
KAM1 160904Z 24009KT 00/M03 A3005 RMK A01 T00021033  RH  077%=      5-min Rain = 0
KAM1 160905Z 24009KT 00/M03 A3005 RMK A01 T00031032  RH  077%=      5-min Rain = 0
KAM1 160906Z 24010KT 00/M03 A3005 RMK A01 T00041032  RH  077%=      5-min Rain = 0
KAM1 160907Z 24010KT 00/M03 A3005 RMK A01 T00041032  RH  077%=      5-min Rain = 0
KAM1 160908Z 24011KT 01/M03 A3005 RMK A01 T00051031  RH  076%=      5-min Rain = 0
KAM1 160909Z 24010KT 01/M03 A3005 RMK A01 T00071031  RH  076%=      5-min Rain = 0
KAM1 160910Z 24011KT 01/M03 A3005 RMK A01 T00081031  RH  075%=      5-min Rain = 0
KAM1 160911Z 24010KT 01/M03 A3005 RMK A01 T00091031  RH  075%=      5-min Rain = 0
KAM1 160912Z 24010KT 01/M03 A3005 RMK A01 T00091031  RH  075%=      5-min Rain = 0
KAM1 160913Z 24010KT 01/M03 A3005 RMK A01 T00091031  RH  075%=      5-min Rain = 0
KAM1 160914Z 24010KT 01/M03 A3005 RMK A01 T00081031  RH  075%=      5-min Rain = 0
KAM1 160915Z 24010KT 01/M03 A3005 RMK A01 T00081031  RH  075%=      5-min Rain = 0
KAM1 160916Z 24010KT 01/M03 A3005 RMK A01 T00081031  RH  075%=      5-min Rain = 0
KAM1 160917Z 24010KT 01/M03 A3005 RMK A01 T00081031  RH  075%=      5-min Rain = 0
KAM1 160918Z 24010KT 01/M03 A3005 RMK A01 T00081032  RH  075%=      5-min Rain = 0
KAM1 160919Z 24010KT 01/M03 A3005 RMK A01 T00071032  RH  075%=      5-min Rain = 0
KAM1 160920Z 24010KT 01/M03 A3005 RMK A01 T00071032  RH  075%=      5-min Rain = 0
KAM1 160921Z 24010KT 01/M03 A3005 RMK A01 T00071032  RH  075%=      5-min Rain = 0
KAM1 160922Z 25010KT 01/M03 A3005 RMK A01 T00071033  RH  075%=      5-min Rain = 0
KAM1 160923Z 24010KT 01/M03 A3005 RMK A01 T00071032  RH  075%=      5-min Rain = 0
KAM1 160924Z 25010KT 01/M03 A3005 RMK A01 T00071032  RH  075%=      5-min Rain = 0
KAM1 160925Z 25010KT 01/M03 A3005 RMK A01 T00071032  RH  075%=      5-min Rain = 0
KAM1 160926Z 25010KT 01/M03 A3005 RMK A01 T00071033  RH  075%=      5-min Rain = 0
KAM1 160927Z 25009KT 01/M03 A3005 RMK A01 T00071033  RH  075%=      5-min Rain = 0
KAM1 160928Z 25010KT 01/M03 A3005 RMK A01 T00071032  RH  075%=      5-min Rain = 0
KAM1 160929Z 25009KT 01/M03 A3005 RMK A01 T00071032  RH  075%=      5-min Rain = 0
KAM1 160930Z 25010KT 01/M03 A3004 RMK A01 T00071032  RH  075%=      5-min Rain = 0
KAM1 160931Z 25011KT 01/M03 A3004 RMK A01 T00081032  RH  075%=      5-min Rain = 0
KAM1 160932Z 25010KT 01/M03 A3004 RMK A01 T00081031  RH  075%=      5-min Rain = 0
KAM1 160933Z 25010KT 01/M03 A3004 RMK A01 T00091031  RH  075%=      5-min Rain = 0
KAM1 160934Z 25010KT 01/M03 A3004 RMK A01 T00091031  RH  075%=      5-min Rain = 0
KAM1 160935Z 24011KT 01/M03 A3004 RMK A01 T00091031  RH  074%=      5-min Rain = 0
KAM1 160936Z 25011KT 01/M03 A3004 RMK A01 T00101031  RH  074%=      5-min Rain = 0
KAM1 160937Z 24011KT 01/M03 A3004 RMK A01 T00111031  RH  074%=      5-min Rain = 0
KAM1 160938Z 24010KT 01/M03 A3004 RMK A01 T00101031  RH  074%=      5-min Rain = 0
KAM1 160939Z 24010KT 01/M03 A3004 RMK A01 T00101031  RH  074%=      5-min Rain = 0
KAM1 160940Z 24011KT 01/M03 A3004 RMK A01 T00101031  RH  074%=      5-min Rain = 0
KAM1 160941Z 24011KT 01/M03 A3004 RMK A01 T00101031  RH  074%=      5-min Rain = 0
KAM1 160942Z 24010KT 01/M03 A3004 RMK A01 T00101032  RH  074%=      5-min Rain = 0
KAM1 160943Z 24010KT 01/M03 A3004 RMK A01 T00091032  RH  074%=      5-min Rain = 0
KAM1 160944Z 24011KT 01/M03 A3004 RMK A01 T00091032  RH  074%=      5-min Rain = 0
KAM1 160945Z 24011KT 01/M03 A3004 RMK A01 T00101032  RH  074%=      5-min Rain = 0
KAM1 160946Z 25010KT 01/M03 A3004 RMK A01 T00101032  RH  074%=      5-min Rain = 0
KAM1 160947Z 24010KT 01/M03 A3004 RMK A01 T00101032  RH  074%=      5-min Rain = 0
KAM1 160948Z 25010KT 01/M03 A3004 RMK A01 T00101032  RH  074%=      5-min Rain = 0
KAM1 160949Z 24011KT 01/M03 A3004 RMK A01 T00091032  RH  074%=      5-min Rain = 0
KAM1 160950Z 24010KT 01/M03 A3004 RMK A01 T00091032  RH  074%=      5-min Rain = 0
KAM1 160951Z 24011KT 01/M03 A3004 RMK A01 T00091032  RH  074%=      5-min Rain = 0
KAM1 160952Z 24011KT 01/M03 A3004 RMK A01 T00091032  RH  074%=      5-min Rain = 0
KAM1 160953Z 24010KT 01/M03 A3004 RMK A01 T00091032  RH  074%=      5-min Rain = 0
KAM1 160954Z 24011KT 01/M03 A3004 RMK A01 T00091032  RH  074%=      5-min Rain = 0
KAM1 160955Z 24011KT 01/M03 A3004 RMK A01 T00091032  RH  074%=      5-min Rain = 0
KAM1 160956Z 24011KT 01/M03 A3004 RMK A01 T00091032  RH  074%=      5-min Rain = 0
KAM1 160957Z 24010KT 01/M03 A3004 RMK A01 T00091032  RH  074%=      5-min Rain = 0
KAM1 160958Z 24011KT 01/M03 A3004 RMK A01 T00101032  RH  074%=      5-min Rain = 0
KAM1 160959Z 25010KT 01/M03 A3004 RMK A01 T00101032  RH  074%=      5-min Rain = 0
KAM1 161000Z 24010KT 01/M03 A3004 RMK A01 T00091032  RH  074%=      5-min Rain = 0
KAM1 161001Z 25011KT 01/M03 A3004 RMK A01 T00081033  RH  074%=      5-min Rain = 0
KAM1 161002Z 25011KT 01/M03 A3004 RMK A01 T00081033  RH  074%=      5-min Rain = 0
KAM1 161003Z 25010KT 01/M03 A3004 RMK A01 T00081033  RH  074%=      5-min Rain = 0
KAM1 161004Z 25010KT 01/M03 A3004 RMK A01 T00081033  RH  074%=      5-min Rain = 0
KAM1 161005Z 24010KT 01/M03 A3004 RMK A01 T00081032  RH  074%=      5-min Rain = 0
KAM1 161006Z 25011KT 01/M03 A3004 RMK A01 T00081033  RH  074%=      5-min Rain = 0
KAM1 161007Z 25011KT 01/M03 A3004 RMK A01 T00081033  RH  074%=      5-min Rain = 0
KAM1 161008Z 25011KT 01/M03 A3004 RMK A01 T00081033  RH  074%=      5-min Rain = 0
KAM1 161009Z 25011KT 01/M03 A3004 RMK A01 T00081033  RH  074%=      5-min Rain = 0
KAM1 161010Z 25011KT 01/M03 A3004 RMK A01 T00081033  RH  074%=      5-min Rain = 0
KAM1 161011Z 24011KT 01/M03 A3004 RMK A01 T00081033  RH  074%=      5-min Rain = 0
KAM1 161012Z 25011KT 01/M03 A3004 RMK A01 T00081033  RH  074%=      5-min Rain = 0
KAM1 161013Z 24011KT 01/M03 A3004 RMK A01 T00071033  RH  074%=      5-min Rain = 0
KAM1 161014Z 24011KT 01/M03 A3004 RMK A01 T00071033  RH  075%=      5-min Rain = 0
KAM1 161015Z 24010KT 01/M03 A3004 RMK A01 T00061033  RH  075%=      5-min Rain = 0
KAM1 161016Z 24010KT 01/M03 A3004 RMK A01 T00061033  RH  075%=      5-min Rain = 0
KAM1 161017Z 24010KT 01/M03 A3003 RMK A01 T00061033  RH  075%=      5-min Rain = 0
KAM1 161018Z 24010KT 01/M03 A3003 RMK A01 T00051034  RH  075%=      5-min Rain = 0
KAM1 161019Z 24010KT 01/M03 A3003 RMK A01 T00051034  RH  075%=      5-min Rain = 0
KAM1 161020Z 24010KT 01/M04 A3003 RMK A01 T00051035  RH  075%=      5-min Rain = 0
KAM1 161021Z 24009KT 00/M04 A3003 RMK A01 T00041035  RH  075%=      5-min Rain = 0
KAM1 161022Z 24010KT 00/M04 A3003 RMK A01 T00031035  RH  076%=      5-min Rain = 0
KAM1 161023Z 24010KT 00/M04 A3003 RMK A01 T00031035  RH  076%=      5-min Rain = 0
KAM1 161024Z 24010KT 00/M04 A3003 RMK A01 T00031035  RH  076%=      5-min Rain = 0
KAM1 161025Z 24010KT 00/M03 A3003 RMK A01 T00041034  RH  076%=      5-min Rain = 0
KAM1 161026Z 25010KT 00/M03 A3003 RMK A01 T00041034  RH  075%=      5-min Rain = 0
KAM1 161027Z 25010KT 00/M04 A3003 RMK A01 T00031035  RH  075%=      5-min Rain = 0
KAM1 161028Z 25010KT 00/M04 A3003 RMK A01 T00031035  RH  076%=      5-min Rain = 0
KAM1 161029Z 25010KT 00/M04 A3003 RMK A01 T00031035  RH  076%=      5-min Rain = 0
KAM1 161030Z 25010KT 00/M04 A3003 RMK A01 T00031035  RH  076%=      5-min Rain = 0
KAM1 161031Z 24010KT 00/M04 A3003 RMK A01 T00031035  RH  076%=      5-min Rain = 0
KAM1 161032Z 25010KT 00/M04 A3003 RMK A01 T00021036  RH  076%=      5-min Rain = 0
KAM1 161033Z 24010KT 00/M04 A3003 RMK A01 T00011036  RH  076%=      5-min Rain = 0
KAM1 161034Z 24009KT 00/M04 A3003 RMK A01 T00011037  RH  076%=      5-min Rain = 0
KAM1 161035Z 24009KT 00/04 A3003 RMK A01 T00-00-37  RH  076%=      5-min Rain = 0
KAM1 161036Z 24009KT 00/04 A3003 RMK A01 T00000-37  RH  076%=      5-min Rain = 0
KAM1 161037Z 24010KT 00/M04 A3003 RMK A01 T00011037  RH  076%=      5-min Rain = 0
KAM1 161038Z 24009KT 00/M04 A3003 RMK A01 T00011037  RH  075%=      5-min Rain = 0
KAM1 161039Z 24009KT 00/M04 A3003 RMK A01 T00011037  RH  075%=      5-min Rain = 0
KAM1 161040Z 24009KT 00/M04 A3003 RMK A01 T00011037  RH  076%=      5-min Rain = 0
KAM1 161041Z 24010KT 00/M04 A3003 RMK A01 T00011037  RH  076%=      5-min Rain = 0
KAM1 161042Z 24009KT 00/M04 A3003 RMK A01 T00011036  RH  076%=      5-min Rain = 0
KAM1 161043Z 24010KT 00/M04 A3003 RMK A01 T00021036  RH  076%=      5-min Rain = 0
KAM1 161044Z 24010KT 00/M04 A3003 RMK A01 T00021036  RH  075%=      5-min Rain = 0
KAM1 161045Z 24010KT 00/M04 A3003 RMK A01 T00021036  RH  076%=      5-min Rain = 0
KAM1 161046Z 24010KT 00/M04 A3003 RMK A01 T00021036  RH  076%=      5-min Rain = 0
KAM1 161047Z 24010KT 00/M04 A3003 RMK A01 T00011036  RH  076%=      5-min Rain = 0
KAM1 161048Z 24010KT 00/M04 A3003 RMK A01 T00011036  RH  076%=      5-min Rain = 0
KAM1 161049Z 24010KT 00/M04 A3003 RMK A01 T00011036  RH  076%=      5-min Rain = 0
KAM1 161050Z 24010KT 00/M04 A3003 RMK A01 T00021036  RH  076%=      5-min Rain = 0
KAM1 161051Z 24010KT 00/M04 A3003 RMK A01 T00021036  RH  076%=      5-min Rain = 0
KAM1 161052Z 24010KT 00/M04 A3003 RMK A01 T00021035  RH  076%=      5-min Rain = 0
KAM1 161053Z 24010KT 00/M04 A3003 RMK A01 T00021035  RH  076%=      5-min Rain = 0
KAM1 161054Z 24010KT 00/M04 A3003 RMK A01 T00021035  RH  076%=      5-min Rain = 0
KAM1 161055Z 24009KT 00/M04 A3003 RMK A01 T00021035  RH  076%=      5-min Rain = 0
KAM1 161056Z 24010KT 00/M04 A3003 RMK A01 T00021035  RH  076%=      5-min Rain = 0
KAM1 161057Z 24009KT 00/M04 A3003 RMK A01 T00011036  RH  076%=      5-min Rain = 0
KAM1 161058Z 24009KT 00/M04 A3003 RMK A01 T00011036  RH  076%=      5-min Rain = 0
KAM1 161059Z 24009KT 00/M04 A3003 RMK A01 T00011036  RH  076%=      5-min Rain = 0
KAM1 161100Z 24009KT 00/04 A3003 RMK A01 T00-00-37  RH  076%=      5-min Rain = 0
KAM1 161101Z 24009KT M00/M04 A3003 RMK A01 T10021038  RH  077%=      5-min Rain = 0
KAM1 161102Z 24009KT M00/M04 A3002 RMK A01 T10031038  RH  077%=      5-min Rain = 0
KAM1 161103Z 24009KT M00/M04 A3002 RMK A01 T10041038  RH  078%=      5-min Rain = 0
KAM1 161104Z 24009KT M00/M04 A3002 RMK A01 T10041038  RH  078%=      5-min Rain = 0
KAM1 161105Z 24009KT M00/M04 A3002 RMK A01 T10041038  RH  078%=      5-min Rain = 0
KAM1 161106Z 24009KT M00/M04 A3002 RMK A01 T10041037  RH  078%=      5-min Rain = 0
KAM1 161107Z 24009KT M00/M04 A3002 RMK A01 T10041037  RH  078%=      5-min Rain = 0
KAM1 161108Z 24009KT M00/M04 A3002 RMK A01 T10041037  RH  078%=      5-min Rain = 0
KAM1 161109Z 24009KT M00/M04 A3002 RMK A01 T10041037  RH  079%=      5-min Rain = 0
KAM1 161110Z 24009KT M00/M04 A3002 RMK A01 T10041037  RH  079%=      5-min Rain = 0
KAM1 161111Z 24009KT M00/M04 A3002 RMK A01 T10041036  RH  079%=      5-min Rain = 0
KAM1 161112Z 24009KT M00/M04 A3002 RMK A01 T10041036  RH  079%=      5-min Rain = 0
KAM1 161113Z 24009KT M01/M04 A3002 RMK A01 T10051037  RH  079%=      5-min Rain = 0
KAM1 161114Z 24009KT M01/M04 A3002 RMK A01 T10051037  RH  079%=      5-min Rain = 0
KAM1 161115Z 24009KT M01/M04 A3002 RMK A01 T10051037  RH  079%=      5-min Rain = 0
KAM1 161116Z 24009KT M01/M04 A3002 RMK A01 T10051037  RH  079%=      5-min Rain = 0
KAM1 161117Z 25009KT M01/M04 A3002 RMK A01 T10061038  RH  079%=      5-min Rain = 0
KAM1 161118Z 24008KT M01/M04 A3002 RMK A01 T10061037  RH  079%=      5-min Rain = 0
KAM1 161119Z 24008KT M01/M04 A3002 RMK A01 T10061038  RH  079%=      5-min Rain = 0
KAM1 161120Z 24008KT M01/M04 A3002 RMK A01 T10071038  RH  079%=      5-min Rain = 0
KAM1 161121Z 25007KT M01/M04 A3002 RMK A01 T10071039  RH  079%=      5-min Rain = 0
KAM1 161122Z 24008KT M01/M04 A3002 RMK A01 T10091040  RH  079%=      5-min Rain = 0
KAM1 161123Z 24007KT M01/M04 A3002 RMK A01 T10101041  RH  080%=      5-min Rain = 0
KAM1 161124Z 24008KT M01/M04 A3002 RMK A01 T10111041  RH  080%=      5-min Rain = 0
KAM1 161125Z 24008KT M01/M04 A3002 RMK A01 T10121042  RH  080%=      5-min Rain = 0
KAM1 161126Z 24007KT M01/M04 A3002 RMK A01 T10131042  RH  080%=      5-min Rain = 0
KAM1 161127Z 24008KT M01/M04 A3002 RMK A01 T10141043  RH  081%=      5-min Rain = 0
KAM1 161128Z 24007KT M02/M04 A3002 RMK A01 T10151043  RH  081%=      5-min Rain = 0
KAM1 161129Z 25007KT M02/M04 A3002 RMK A01 T10151043  RH  081%=      5-min Rain = 0
KAM1 161130Z 25007KT M02/M04 A3002 RMK A01 T10161043  RH  081%=      5-min Rain = 0
KAM1 161131Z 25008KT M02/M04 A3002 RMK A01 T10161044  RH  081%=      5-min Rain = 0
KAM1 161132Z 25008KT M02/M04 A3002 RMK A01 T10171044  RH  082%=      5-min Rain = 0
KAM1 161133Z 25008KT M02/M04 A3002 RMK A01 T10171044  RH  082%=      5-min Rain = 0
KAM1 161134Z 25008KT M02/M04 A3002 RMK A01 T10161043  RH  082%=      5-min Rain = 0
KAM1 161135Z 24008KT M02/M04 A3002 RMK A01 T10151043  RH  082%=      5-min Rain = 0
KAM1 161136Z 24008KT M02/M04 A3002 RMK A01 T10151043  RH  082%=      5-min Rain = 0
KAM1 161137Z 24008KT M02/M04 A3002 RMK A01 T10161044  RH  082%=      5-min Rain = 0
KAM1 161138Z 24008KT M02/M05 A3002 RMK A01 T10171045  RH  082%=      5-min Rain = 0
KAM1 161139Z 24008KT M02/M05 A3002 RMK A01 T10181045  RH  082%=      5-min Rain = 0
KAM1 161140Z 24008KT M02/M04 A3002 RMK A01 T10181044  RH  082%=      5-min Rain = 0
KAM1 161141Z 24008KT M02/M04 A3002 RMK A01 T10181044  RH  082%=      5-min Rain = 0
KAM1 161142Z 24009KT M02/M04 A3002 RMK A01 T10171044  RH  082%=      5-min Rain = 0
KAM1 161143Z 24009KT M02/M04 A3002 RMK A01 T10161042  RH  082%=      5-min Rain = 0
KAM1 161144Z 24009KT M02/M04 A3002 RMK A01 T10151041  RH  082%=      5-min Rain = 0
KAM1 161145Z 24009KT M01/M04 A3002 RMK A01 T10131039  RH  082%=      5-min Rain = 0
KAM1 161146Z 24009KT M01/M04 A3002 RMK A01 T10121039  RH  082%=      5-min Rain = 0
KAM1 161147Z 24009KT M01/M04 A3002 RMK A01 T10111038  RH  081%=      5-min Rain = 0
KAM1 161148Z 24009KT M01/M04 A3002 RMK A01 T10101038  RH  081%=      5-min Rain = 0
KAM1 161149Z 24010KT M01/M04 A3002 RMK A01 T10091037  RH  081%=      5-min Rain = 0
KAM1 161150Z 24010KT M01/M04 A3002 RMK A01 T10071037  RH  081%=      5-min Rain = 0
KAM1 161151Z 24010KT M01/M04 A3002 RMK A01 T10061036  RH  080%=      5-min Rain = 0
KAM1 161152Z 25009KT M01/M04 A3002 RMK A01 T10061037  RH  080%=      5-min Rain = 0
KAM1 161153Z 25010KT M01/M04 A3002 RMK A01 T10061037  RH  080%=      5-min Rain = 0
KAM1 161154Z 25009KT M01/M04 A3002 RMK A01 T10051036  RH  079%=      5-min Rain = 0
KAM1 161155Z 25010KT M00/M04 A3002 RMK A01 T10041036  RH  079%=      5-min Rain = 0
KAM1 161156Z 25009KT M00/M04 A3002 RMK A01 T10041036  RH  079%=      5-min Rain = 0
KAM1 161157Z 25010KT M00/M04 A3002 RMK A01 T10041036  RH  079%=      5-min Rain = 0
KAM1 161158Z 25009KT M00/M04 A3002 RMK A01 T10031036  RH  079%=      5-min Rain = 0
KAM1 161159Z 25009KT M00/M04 A3002 RMK A01 T10041037  RH  078%=      5-min Rain = 0
KAM1 161200Z 25009KT M01/M04 A3002 RMK A01 T10051037  RH  079%=      5-min Rain = 0
KAM1 161201Z 25009KT M01/M04 A3002 RMK A01 T10051038  RH  079%=      5-min Rain = 0
KAM1 161202Z 25009KT M01/M04 A3002 RMK A01 T10061038  RH  079%=      5-min Rain = 0
KAM1 161203Z 25009KT M01/M04 A3002 RMK A01 T10071039  RH  079%=      5-min Rain = 0
KAM1 161204Z 25009KT M01/M04 A3002 RMK A01 T10071039  RH  079%=      5-min Rain = 0
KAM1 161205Z 25009KT M01/M04 A3002 RMK A01 T10071039  RH  079%=      5-min Rain = 0
KAM1 161206Z 25009KT M01/M04 A3002 RMK A01 T10071039  RH  079%=      5-min Rain = 0
KAM1 161207Z 25009KT M01/M04 A3002 RMK A01 T10071039  RH  079%=      5-min Rain = 0
KAM1 161208Z 25009KT M01/M04 A3002 RMK A01 T10071038  RH  079%=      5-min Rain = 0
KAM1 161209Z 25009KT M01/M04 A3001 RMK A01 T10061038  RH  079%=      5-min Rain = 0
KAM1 161210Z 25009KT M01/M04 A3002 RMK A01 T10051038  RH  078%=      5-min Rain = 0
KAM1 161211Z 25009KT M00/M04 A3001 RMK A01 T10041038  RH  078%=      5-min Rain = 0
KAM1 161212Z 25009KT M00/M04 A3001 RMK A01 T10041037  RH  078%=      5-min Rain = 0
KAM1 161213Z 25009KT M00/M04 A3001 RMK A01 T10031037  RH  078%=      5-min Rain = 0
KAM1 161214Z 25009KT M00/M04 A3001 RMK A01 T10021037  RH  077%=      5-min Rain = 0
KAM1 161215Z 25008KT M00/M04 A3001 RMK A01 T10021037  RH  077%=      5-min Rain = 0
KAM1 161216Z 25009KT M00/M04 A3001 RMK A01 T10021037  RH  077%=      5-min Rain = 0
KAM1 161217Z 25009KT M00/M04 A3001 RMK A01 T10011037  RH  077%=      5-min Rain = 0
KAM1 161218Z 25008KT M00/M04 A3001 RMK A01 T10011037  RH  077%=      5-min Rain = 0
KAM1 161219Z 25008KT M00/M04 A3001 RMK A01 T10011037  RH  077%=      5-min Rain = 0
KAM1 161220Z 25008KT M00/M04 A3001 RMK A01 T10021038  RH  077%=      5-min Rain = 0
KAM1 161221Z 25008KT M00/M04 A3001 RMK A01 T10031039  RH  077%=      5-min Rain = 0
KAM1 161222Z 26008KT M01/M04 A3001 RMK A01 T10051040  RH  077%=      5-min Rain = 0
KAM1 161223Z 26008KT M01/M04 A3001 RMK A01 T10061040  RH  078%=      5-min Rain = 0
KAM1 161224Z 26008KT M01/M04 A3001 RMK A01 T10061040  RH  078%=      5-min Rain = 0
KAM1 161225Z 26008KT M01/M04 A3001 RMK A01 T10071040  RH  078%=      5-min Rain = 0
KAM1 161226Z 26008KT M01/M04 A3001 RMK A01 T10071039  RH  078%=      5-min Rain = 0
KAM1 161227Z 26008KT M01/M04 A3001 RMK A01 T10061038  RH  078%=      5-min Rain = 0
KAM1 161228Z 25009KT M01/M04 A3001 RMK A01 T10061039  RH  078%=      5-min Rain = 0
KAM1 161229Z 25009KT M01/M04 A3001 RMK A01 T10051039  RH  078%=      5-min Rain = 0
KAM1 161230Z 25010KT M01/M04 A3001 RMK A01 T10051039  RH  078%=      5-min Rain = 0
KAM1 161231Z 25009KT M01/M04 A3001 RMK A01 T10051038  RH  078%=      5-min Rain = 0
KAM1 161232Z 25010KT M01/M04 A3001 RMK A01 T10051038  RH  078%=      5-min Rain = 0
KAM1 161233Z 25009KT M00/M04 A3001 RMK A01 T10041038  RH  078%=      5-min Rain = 0
KAM1 161234Z 26009KT M00/M04 A3001 RMK A01 T10041037  RH  078%=      5-min Rain = 0
KAM1 161235Z 26010KT M00/M04 A3001 RMK A01 T10041038  RH  078%=      5-min Rain = 0
KAM1 161236Z 26009KT M00/M04 A3001 RMK A01 T10041038  RH  078%=      5-min Rain = 0
KAM1 161237Z 26010KT M00/M04 A3001 RMK A01 T10041038  RH  078%=      5-min Rain = 0
KAM1 161238Z 26009KT M00/M04 A3001 RMK A01 T10041038  RH  078%=      5-min Rain = 0
KAM1 161239Z 26009KT M01/M04 A3001 RMK A01 T10051038  RH  078%=      5-min Rain = 0
KAM1 161240Z 26009KT M01/M04 A3001 RMK A01 T10051038  RH  078%=      5-min Rain = 0
KAM1 161241Z 25010KT M01/M04 A3001 RMK A01 T10051038  RH  079%=      5-min Rain = 0
KAM1 161242Z 26010KT M01/M04 A3001 RMK A01 T10051038  RH  078%=      5-min Rain = 0
KAM1 161243Z 26009KT M01/M04 A3001 RMK A01 T10051038  RH  079%=      5-min Rain = 0
KAM1 161244Z 25009KT M01/M04 A3001 RMK A01 T10051037  RH  079%=      5-min Rain = 0
KAM1 161245Z 25009KT M01/M04 A3001 RMK A01 T10051038  RH  079%=      5-min Rain = 0
KAM1 161246Z 25009KT M01/M04 A3001 RMK A01 T10051037  RH  079%=      5-min Rain = 0
KAM1 161247Z 25009KT M01/M04 A3001 RMK A01 T10051038  RH  079%=      5-min Rain = 0
KAM1 161248Z 25009KT M01/M04 A3001 RMK A01 T10061038  RH  079%=      5-min Rain = 0
KAM1 161249Z 25009KT M01/M04 A3001 RMK A01 T10071038  RH  079%=      5-min Rain = 0
KAM1 161250Z 25009KT M01/M04 A3001 RMK A01 T10071038  RH  079%=      5-min Rain = 0
KAM1 161251Z 25009KT M01/M04 A3001 RMK A01 T10071038  RH  079%=      5-min Rain = 0
KAM1 161252Z 25009KT M01/M04 A3001 RMK A01 T10061038  RH  079%=      5-min Rain = 0
KAM1 161253Z 25009KT M01/M04 A3001 RMK A01 T10061038  RH  079%=      5-min Rain = 0
KAM1 161254Z 25009KT M01/M04 A3001 RMK A01 T10061038  RH  079%=      5-min Rain = 0
KAM1 161255Z 25009KT M01/M04 A3001 RMK A01 T10061038  RH  079%=      5-min Rain = 0
KAM1 161256Z 24009KT M01/M04 A3001 RMK A01 T10061038  RH  079%=      5-min Rain = 0
KAM1 161257Z 25009KT M01/M04 A3001 RMK A01 T10071038  RH  079%=      5-min Rain = 0
KAM1 161258Z 25008KT M01/M04 A3001 RMK A01 T10071039  RH  079%=      5-min Rain = 0
KAM1 161259Z 25009KT M01/M04 A3001 RMK A01 T10081039  RH  080%=      5-min Rain = 0
KAM1 161300Z 25009KT M01/M04 A3001 RMK A01 T10091039  RH  080%=      5-min Rain = 0
KAM1 161301Z 25009KT M01/M04 A3001 RMK A01 T10091039  RH  080%=      5-min Rain = 0
KAM1 161302Z 25009KT M01/M04 A3001 RMK A01 T10081039  RH  080%=      5-min Rain = 0
KAM1 161303Z 25008KT M01/M04 A3001 RMK A01 T10091039  RH  080%=      5-min Rain = 0
KAM1 161304Z 25009KT M01/M04 A3001 RMK A01 T10091039  RH  080%=      5-min Rain = 0
KAM1 161305Z 25009KT M01/M04 A3001 RMK A01 T10091039  RH  080%=      5-min Rain = 0
KAM1 161306Z 25009KT M01/M04 A3001 RMK A01 T10091039  RH  080%=      5-min Rain = 0
KAM1 161307Z 25009KT M01/M04 A3001 RMK A01 T10091039  RH  080%=      5-min Rain = 0
KAM1 161308Z 25009KT M01/M04 A3001 RMK A01 T10091039  RH  080%=      5-min Rain = 0
KAM1 161309Z 25009KT M01/M04 A3001 RMK A01 T10101040  RH  080%=      5-min Rain = 0
KAM1 161310Z 25008KT M01/M04 A3001 RMK A01 T10101040  RH  080%=      5-min Rain = 0
KAM1 161311Z 25008KT M01/M04 A3001 RMK A01 T10101040  RH  080%=      5-min Rain = 0
KAM1 161312Z 25008KT M01/M04 A3001 RMK A01 T10111040  RH  080%=      5-min Rain = 0
KAM1 161313Z 25008KT M01/M04 A3001 RMK A01 T10121041  RH  080%=      5-min Rain = 0
KAM1 161314Z 25009KT M01/M04 A3001 RMK A01 T10121041  RH  081%=      5-min Rain = 0
KAM1 161315Z 25008KT M01/M04 A3001 RMK A01 T10121041  RH  081%=      5-min Rain = 0
KAM1 161316Z 25009KT M01/M04 A3001 RMK A01 T10121041  RH  081%=      5-min Rain = 0
KAM1 161317Z 25008KT M01/M04 A3001 RMK A01 T10121041  RH  081%=      5-min Rain = 0
KAM1 161318Z 25009KT M01/M04 A3001 RMK A01 T10121041  RH  081%=      5-min Rain = 0
KAM1 161319Z 25009KT M01/M04 A3001 RMK A01 T10121041  RH  081%=      5-min Rain = 0
KAM1 161320Z 25010KT M01/M04 A3001 RMK A01 T10121041  RH  081%=      5-min Rain = 0
KAM1 161321Z 25010KT M01/M04 A3001 RMK A01 T10111040  RH  081%=      5-min Rain = 0
KAM1 161322Z 24010KT M01/M04 A3001 RMK A01 T10101039  RH  081%=      5-min Rain = 0
KAM1 161323Z 24011KT M01/M04 A3001 RMK A01 T10081038  RH  080%=      5-min Rain = 0
KAM1 161324Z 24010KT M01/M04 A3001 RMK A01 T10081038  RH  080%=      5-min Rain = 0
KAM1 161325Z 25010KT M01/M04 A3001 RMK A01 T10071038  RH  080%=      5-min Rain = 0
KAM1 161326Z 24010KT M01/M04 A3001 RMK A01 T10071038  RH  080%=      5-min Rain = 0
KAM1 161327Z 24010KT M01/M04 A3001 RMK A01 T10071038  RH  080%=      5-min Rain = 0
KAM1 161328Z 25010KT M01/M04 A3001 RMK A01 T10081038  RH  080%=      5-min Rain = 0
KAM1 161329Z 25010KT M01/M04 A3001 RMK A01 T10081038  RH  080%=      5-min Rain = 0
KAM1 161330Z 25010KT M01/M04 A3001 RMK A01 T10081038  RH  080%=      5-min Rain = 0
KAM1 161331Z 24010KT M01/M04 A3001 RMK A01 T10081039  RH  080%=      5-min Rain = 0
KAM1 161332Z 25010KT M01/M04 A3001 RMK A01 T10071038  RH  080%=      5-min Rain = 0
KAM1 161333Z 25010KT M01/M04 A3001 RMK A01 T10071038  RH  080%=      5-min Rain = 0
KAM1 161334Z 25009KT M01/M04 A3001 RMK A01 T10071039  RH  079%=      5-min Rain = 0
KAM1 161335Z 25009KT M01/M04 A3001 RMK A01 T10081039  RH  079%=      5-min Rain = 0
KAM1 161336Z 25009KT M01/M04 A3001 RMK A01 T10081039  RH  079%=      5-min Rain = 0
KAM1 161337Z 25010KT M01/M04 A3001 RMK A01 T10081039  RH  079%=      5-min Rain = 0
KAM1 161338Z 24009KT M01/M04 A3001 RMK A01 T10091039  RH  080%=      5-min Rain = 0
KAM1 161339Z 25010KT M01/M04 A3001 RMK A01 T10091039  RH  080%=      5-min Rain = 0
KAM1 161340Z 25010KT M01/M04 A3001 RMK A01 T10081038  RH  080%=      5-min Rain = 0
KAM1 161341Z 25010KT M01/M04 A30 RMK A01 T10071038  RH  080%=      5-min Rain = 0
KAM1 161342Z 25011KT M01/M04 A30 RMK A01 T10061037  RH  080%=      5-min Rain = 0
KAM1 161343Z 25011KT M01/M04 A30 RMK A01 T10051037  RH  079%=      5-min Rain = 0
KAM1 161344Z 25011KT M01/M04 A30 RMK A01 T10051036  RH  079%=      5-min Rain = 0
KAM1 161345Z 25011KT M00/M04 A30 RMK A01 T10041036  RH  079%=      5-min Rain = 0
KAM1 161346Z 24011KT M00/M04 A30 RMK A01 T10031036  RH  078%=      5-min Rain = 0
KAM1 161347Z 25010KT M00/M04 A30 RMK A01 T10021036  RH  078%=      5-min Rain = 0
KAM1 161348Z 25011KT M00/M04 A30 RMK A01 T10021036  RH  078%=      5-min Rain = 0
KAM1 161349Z 25010KT M00/M04 A30 RMK A01 T10031037  RH  078%=      5-min Rain = 0
KAM1 161350Z 25010KT M00/M04 A30 RMK A01 T10021036  RH  078%=      5-min Rain = 0
KAM1 161351Z 25010KT M00/M04 A30 RMK A01 T10021036  RH  078%=      5-min Rain = 0
KAM1 161352Z 25010KT M00/M04 A30 RMK A01 T10021036  RH  078%=      5-min Rain = 0
KAM1 161353Z 25010KT M00/M04 A30 RMK A01 T10021036  RH  078%=      5-min Rain = 0
KAM1 161354Z 25010KT M00/M04 A30 RMK A01 T10011036  RH  078%=      5-min Rain = 0
KAM1 161355Z 25010KT M00/M04 A30 RMK A01 T10011036  RH  078%=      5-min Rain = 0
KAM1 161356Z 25009KT 00/04 A3001 RMK A01 T00-00-35  RH  077%=      5-min Rain = 0
KAM1 161357Z 25009KT 00/04 A3001 RMK A01 T00-00-35  RH  077%=      5-min Rain = 0
KAM1 161358Z 25009KT 00/04 A3001 RMK A01 T00000-35  RH  077%=      5-min Rain = 0
KAM1 161359Z 25010KT 00/04 A3001 RMK A01 T00000-35  RH  077%=      5-min Rain = 0
KAM1 161400Z 25009KT 00/M04 A3001 RMK A01 T00011035  RH  077%=      5-min Rain = 0
KAM1 161401Z 25009KT 00/M03 A3001 RMK A01 T00011034  RH  077%=      5-min Rain = 0
KAM1 161402Z 25009KT 00/M03 A3001 RMK A01 T00021034  RH  077%=      5-min Rain = 0
KAM1 161403Z 25009KT 00/M03 A3001 RMK A01 T00021034  RH  077%=      5-min Rain = 0
KAM1 161404Z 25009KT 00/M03 A3001 RMK A01 T00021034  RH  077%=      5-min Rain = 0
KAM1 161405Z 26009KT 00/M03 A3001 RMK A01 T00031034  RH  076%=      5-min Rain = 0
KAM1 161406Z 25009KT 00/M03 A3001 RMK A01 T00031033  RH  076%=      5-min Rain = 0
KAM1 161407Z 25010KT 00/M03 A3001 RMK A01 T00041033  RH  076%=      5-min Rain = 0
KAM1 161408Z 26009KT 01/M03 A3001 RMK A01 T00051033  RH  076%=      5-min Rain = 0
KAM1 161409Z 25010KT 01/M03 A3001 RMK A01 T00051033  RH  076%=      5-min Rain = 0
KAM1 161410Z 26009KT 01/M03 A3001 RMK A01 T00061032  RH  076%=      5-min Rain = 0
KAM1 161411Z 25010KT 01/M03 A3001 RMK A01 T00061032  RH  075%=      5-min Rain = 0
KAM1 161412Z 26009KT 01/M03 A3001 RMK A01 T00071032  RH  075%=      5-min Rain = 0
KAM1 161413Z 26009KT 01/M03 A3001 RMK A01 T00081032  RH  075%=      5-min Rain = 0
KAM1 161414Z 26009KT 01/M03 A3001 RMK A01 T00081032  RH  075%=      5-min Rain = 0
KAM1 161415Z 26007KT 01/M03 A3001 RMK A01 T00081031  RH  075%=      5-min Rain = 0
KAM1 161416Z 26008KT 01/M03 A3001 RMK A01 T00091031  RH  075%=      5-min Rain = 0
KAM1 161417Z 26008KT 01/M03 A3001 RMK A01 T00091030  RH  075%=      5-min Rain = 0
KAM1 161418Z 26009KT 01/M03 A3001 RMK A01 T00101030  RH  075%=      5-min Rain = 0
KAM1 161419Z 26009KT 01/M03 A3001 RMK A01 T00101030  RH  074%=      5-min Rain = 0
KAM1 161420Z 25008KT 01/M03 A3001 RMK A01 T00111029  RH  074%=      5-min Rain = 0
KAM1 161421Z 25009KT 01/M03 A3001 RMK A01 T00121029  RH  074%=      5-min Rain = 0
KAM1 161422Z 25009KT 01/M03 A3001 RMK A01 T00121029  RH  074%=      5-min Rain = 0
KAM1 161423Z 25009KT 01/M03 A3001 RMK A01 T00131029  RH  074%=      5-min Rain = 0
KAM1 161424Z 25008KT 01/M03 A3001 RMK A01 T00141029  RH  073%=      5-min Rain = 0
KAM1 161425Z 25009KT 02/M03 A3001 RMK A01 T00151028  RH  073%=      5-min Rain = 0
KAM1 161426Z 25010KT 02/M03 A3001 RMK A01 T00151028  RH  073%=      5-min Rain = 0
KAM1 161427Z 25010KT 02/M03 A3001 RMK A01 T00161028  RH  073%=      5-min Rain = 0
KAM1 161428Z 25010KT 02/M03 A3001 RMK A01 T00161028  RH  072%=      5-min Rain = 0
KAM1 161429Z 26009KT 02/M03 A3001 RMK A01 T00171028  RH  072%=      5-min Rain = 0
KAM1 161430Z 26009KT 02/M03 A3001 RMK A01 T00181028  RH  072%=      5-min Rain = 0
KAM1 161431Z 26010KT 02/M03 A3001 RMK A01 T00181027  RH  072%=      5-min Rain = 0
KAM1 161432Z 26011KT 02/M03 A3001 RMK A01 T00191028  RH  071%=      5-min Rain = 0
KAM1 161433Z 26010KT 02/M03 A3001 RMK A01 T00201028  RH  071%=      5-min Rain = 0
KAM1 161434Z 26010KT 02/M03 A3001 RMK A01 T00201028  RH  071%=      5-min Rain = 0
KAM1 161435Z 26009KT 02/M03 A3001 RMK A01 T00211027  RH  071%=      5-min Rain = 0
KAM1 161436Z 26010KT 02/M03 A3001 RMK A01 T00211026  RH  071%=      5-min Rain = 0
KAM1 161437Z 26010KT 02/M03 A3001 RMK A01 T00211026  RH  071%=      5-min Rain = 0
KAM1 161438Z 26010KT 02/M03 A3001 RMK A01 T00221026  RH  071%=      5-min Rain = 0
KAM1 161439Z 26010KT 02/M03 A3001 RMK A01 T00221026  RH  071%=      5-min Rain = 0
KAM1 161440Z 25010KT 02/M03 A3001 RMK A01 T00221026  RH  070%=      5-min Rain = 0
KAM1 161441Z 26011KT 02/M03 A3001 RMK A01 T00231026  RH  070%=      5-min Rain = 0
KAM1 161442Z 25010KT 02/M03 A3001 RMK A01 T00231026  RH  070%=      5-min Rain = 0
KAM1 161443Z 26010KT 02/M03 A3001 RMK A01 T00241025  RH  070%=      5-min Rain = 0
KAM1 161444Z 26011KT 02/M03 A3001 RMK A01 T00241025  RH  070%=      5-min Rain = 0
KAM1 161445Z 26010KT 03/M03 A3001 RMK A01 T00251026  RH  069%=      5-min Rain = 0
KAM1 161446Z 25011KT 03/M03 A3001 RMK A01 T00251025  RH  069%=      5-min Rain = 0
KAM1 161447Z 25011KT 03/M03 A3001 RMK A01 T00261025  RH  069%=      5-min Rain = 0
KAM1 161448Z 26011KT 03/M02 A3001 RMK A01 T00261024  RH  069%=      5-min Rain = 0
KAM1 161449Z 26010KT 03/M03 A3001 RMK A01 T00271025  RH  069%=      5-min Rain = 0
KAM1 161450Z 26010KT 03/M02 A3001 RMK A01 T00271024  RH  069%=      5-min Rain = 0
KAM1 161451Z 26011KT 03/M02 A3001 RMK A01 T00281023  RH  069%=      5-min Rain = 0
KAM1 161452Z 25010KT 03/M02 A3001 RMK A01 T00281024  RH  069%=      5-min Rain = 0
KAM1 161453Z 26010KT 03/M02 A3001 RMK A01 T00291022  RH  069%=      5-min Rain = 0
KAM1 161454Z 25010KT 03/M02 A3001 RMK A01 T00291022  RH  069%=      5-min Rain = 0
KAM1 161455Z 25010KT 03/M02 A3001 RMK A01 T00301022  RH  069%=      5-min Rain = 0
KAM1 161456Z 25012KT 03/M02 A3001 RMK A01 T00311022  RH  068%=      5-min Rain = 0
KAM1 161457Z 25012KT 03/M02 A3001 RMK A01 T00311023  RH  068%=      5-min Rain = 0
KAM1 161458Z 26010KT 03/M02 A3001 RMK A01 T00311023  RH  068%=      5-min Rain = 0
KAM1 161459Z 25010KT 03/M02 A3001 RMK A01 T00321021  RH  068%=      5-min Rain = 0
KAM1 161500Z 26010KT 03/M02 A3001 RMK A01 T00331020  RH  068%=      5-min Rain = 0
KAM1 161501Z 25011KT 03/M02 A3001 RMK A01 T00341021  RH  068%=      5-min Rain = 0
KAM1 161502Z 26011KT 03/M02 A3001 RMK A01 T00341021  RH  067%=      5-min Rain = 0
KAM1 161503Z 25010KT 04/M02 A3001 RMK A01 T00351020  RH  067%=      5-min Rain = 0
KAM1 161504Z 25012KT 04/M02 A3001 RMK A01 T00361020  RH  067%=      5-min Rain = 0
KAM1 161505Z 25011KT 04/M02 A3001 RMK A01 T00361021  RH  067%=      5-min Rain = 0
KAM1 161506Z 25010KT 04/M02 A3001 RMK A01 T00361019  RH  067%=      5-min Rain = 0
KAM1 161507Z 26011KT 04/M02 A30 RMK A01 T00371019  RH  067%=      5-min Rain = 0
KAM1 161508Z 26011KT 04/M02 A30 RMK A01 T00381017  RH  067%=      5-min Rain = 0
KAM1 161509Z 25010KT 04/M02 A30 RMK A01 T00391017  RH  067%=      5-min Rain = 0
KAM1 161510Z 25011KT 04/M02 A30 RMK A01 T00391017  RH  066%=      5-min Rain = 0
KAM1 161511Z 25011KT 04/M02 A30 RMK A01 T00391019  RH  066%=      5-min Rain = 0
KAM1 161512Z 26011KT 04/M02 A30 RMK A01 T00401018  RH  066%=      5-min Rain = 0
KAM1 161513Z 26011KT 04/M02 A30 RMK A01 T00401018  RH  066%=      5-min Rain = 0
KAM1 161514Z 26012KT 04/M02 A30 RMK A01 T00401019  RH  065%=      5-min Rain = 0
KAM1 161515Z 26012KT 04/M02 A30 RMK A01 T00401019  RH  065%=      5-min Rain = 0
KAM1 161516Z 26012KT 04/M02 A30 RMK A01 T00411018  RH  065%=      5-min Rain = 0
KAM1 161517Z 25011KT 04/M02 A30 RMK A01 T00421017  RH  065%=      5-min Rain = 0
KAM1 161518Z 26012KT 04/M02 A30 RMK A01 T00431017  RH  065%=      5-min Rain = 0
KAM1 161519Z 26012KT 04/M02 A30 RMK A01 T00441016  RH  065%=      5-min Rain = 0
KAM1 161520Z 26013KT 05/M02 A30 RMK A01 T00451017  RH  064%=      5-min Rain = 0
KAM1 161521Z 26014KT 05/M02 A30 RMK A01 T00451018  RH  064%=      5-min Rain = 0
KAM1 161522Z 26013KT 05/M02 A30 RMK A01 T00451019  RH  063%=      5-min Rain = 0
KAM1 161523Z 26012KT 05/M02 A30 RMK A01 T00451019  RH  063%=      5-min Rain = 0
KAM1 161524Z 26013KT 05/M02 A30 RMK A01 T00461017  RH  063%=      5-min Rain = 0
KAM1 161525Z 26011KT 05/M02 A30 RMK A01 T00471017  RH  063%=      5-min Rain = 0
KAM1 161526Z 26014KT 05/M02 A30 RMK A01 T00481015  RH  063%=      5-min Rain = 0
KAM1 161527Z 26012KT 05/M02 A30 RMK A01 T00491016  RH  063%=      5-min Rain = 0
KAM1 161528Z 26010KT 05/M01 A30 RMK A01 T00501012  RH  064%=      5-min Rain = 0
KAM1 161529Z 26011KT 05/M01 A30 RMK A01 T00531011  RH  064%=      5-min Rain = 0
KAM1 161530Z 26013KT 05/M01 A30 RMK A01 T00541013  RH  062%=      5-min Rain = 0
KAM1 161531Z 26012KT 05/M01 A30 RMK A01 T00541013  RH  062%=      5-min Rain = 0
KAM1 161532Z 26011KT 05/M01 A30 RMK A01 T00541013  RH  062%=      5-min Rain = 0
KAM1 161533Z 26013KT 05/M01 A30 RMK A01 T00541014  RH  062%=      5-min Rain = 0
KAM1 161534Z 26013KT 06/M01 A30 RMK A01 T00551013  RH  061%=      5-min Rain = 0
KAM1 161535Z 26013KT 06/M01 A30 RMK A01 T00551014  RH  061%=      5-min Rain = 0
KAM1 161536Z 26013KT 06/M01 A30 RMK A01 T00551013  RH  061%=      5-min Rain = 0
KAM1 161537Z 26012KT 06/M01 A30 RMK A01 T00551014  RH  061%=      5-min Rain = 0
KAM1 161538Z 25012KT 06/M01 A30 RMK A01 T00551014  RH  061%=      5-min Rain = 0
KAM1 161539Z 25012KT 06/M01 A30 RMK A01 T00561012  RH  061%=      5-min Rain = 0
KAM1 161540Z 25012KT 06/M01 A30 RMK A01 T00571012  RH  061%=      5-min Rain = 0
KAM1 161541Z 25011KT 06/M01 A30 RMK A01 T00581011  RH  061%=      5-min Rain = 0
KAM1 161542Z 25014KT 06/M01 A30 RMK A01 T00601011  RH  060%=      5-min Rain = 0
KAM1 161543Z 25013KT 06/M01 A30 RMK A01 T00601013  RH  059%=      5-min Rain = 0
KAM1 161544Z 26011KT 06/M01 A30 RMK A01 T00601010  RH  060%=      5-min Rain = 0
KAM1 161545Z 25011KT 06/M01 A30 RMK A01 T00621010  RH  060%=      5-min Rain = 0
KAM1 161546Z 25011KT 06/M01 A30 RMK A01 T00631008  RH  060%=      5-min Rain = 0
KAM1 161547Z 25011KT 07/M01 A30 RMK A01 T00651007  RH  060%=      5-min Rain = 0
KAM1 161548Z 25013KT 07/M01 A30 RMK A01 T00671007  RH  059%=      5-min Rain = 0
KAM1 161549Z 25012KT 07/M01 A30 RMK A01 T00671008  RH  059%=      5-min Rain = 0
KAM1 161550Z 25015KT 07/M01 A30 RMK A01 T00681010  RH  058%=      5-min Rain = 0
KAM1 161551Z 25015KT 07/M01 A30 RMK A01 T00671011  RH  057%=      5-min Rain = 0
KAM1 161552Z 25015KT 07/M01 A30 RMK A01 T00671011  RH  058%=      5-min Rain = 0
KAM1 161553Z 25013KT 07/M01 A2999 RMK A01 T00671012  RH  057%=      5-min Rain = 0
KAM1 161554Z 25013KT 07/M01 A2999 RMK A01 T00691008  RH  058%=      5-min Rain = 0
KAM1 161555Z 25013KT 07/M01 A2999 RMK A01 T00711007  RH  058%=      5-min Rain = 0
KAM1 161556Z 25014KT 07/M01 A2999 RMK A01 T00721008  RH  057%=      5-min Rain = 0
KAM1 161557Z 26012KT 07/M01 A2999 RMK A01 T00721007  RH  057%=      5-min Rain = 0
KAM1 161558Z 25010KT 07/M01 A2999 RMK A01 T00741006  RH  057%=      5-min Rain = 0
KAM1 161559Z 25012KT 08/M00 A2999 RMK A01 T00761004  RH  057%=      5-min Rain = 0
KAM1 161600Z 26012KT 08/M00 A2999 RMK A01 T00771004  RH  056%=      5-min Rain = 0
KAM1 161601Z 26012KT 08/M00 A2999 RMK A01 T00781004  RH  056%=      5-min Rain = 0
KAM1 161602Z 26014KT 08/M00 A2999 RMK A01 T00781004  RH  056%=      5-min Rain = 0
KAM1 161603Z 25012KT 08/M01 A2999 RMK A01 T00771005  RH  056%=      5-min Rain = 0
KAM1 161604Z 25012KT 08/M01 A2999 RMK A01 T00771005  RH  056%=      5-min Rain = 0
KAM1 161605Z 25012KT 08/M01 A2999 RMK A01 T00791005  RH  055%=      5-min Rain = 0
KAM1 161606Z 26010KT 08/M00 A2999 RMK A01 T00801003  RH  055%=      5-min Rain = 0
KAM1 161607Z 26013KT 08/M00 A2999 RMK A01 T00821002  RH  055%=      5-min Rain = 0
KAM1 161608Z 26013KT 08/M00 A2999 RMK A01 T00821004  RH  054%=      5-min Rain = 0
KAM1 161609Z 26014KT 08/M01 A2999 RMK A01 T00811005  RH  054%=      5-min Rain = 0
KAM1 161610Z 25011KT 08/M00 A2999 RMK A01 T00811004  RH  055%=      5-min Rain = 0
KAM1 161611Z 26012KT 08/M00 A2999 RMK A01 T00821003  RH  055%=      5-min Rain = 0
KAM1 161612Z 26011KT 08/M00 A2999 RMK A01 T00831002  RH  055%=      5-min Rain = 0
KAM1 161613Z 26012KT 08/M00 A2999 RMK A01 T00831003  RH  055%=      5-min Rain = 0
KAM1 161614Z 26012KT 08/M00 A2999 RMK A01 T00831003  RH  055%=      5-min Rain = 0
KAM1 161615Z 26012KT 08/M00 A2999 RMK A01 T00841004  RH  054%=      5-min Rain = 0
KAM1 161616Z 26011KT 08/M00 A2999 RMK A01 T00841002  RH  055%=      5-min Rain = 0
KAM1 161617Z 26011KT 09/M00 A2999 RMK A01 T00851001  RH  055%=      5-min Rain = 0
KAM1 161618Z 26012KT 09/M00 A2999 RMK A01 T00861002  RH  054%=      5-min Rain = 0
KAM1 161619Z 26012KT 09/M00 A2999 RMK A01 T00861003  RH  053%=      5-min Rain = 0
KAM1 161620Z 27011KT 09/M00 A2999 RMK A01 T00871002  RH  054%=      5-min Rain = 0
KAM1 161621Z 26013KT 09/M00 A2999 RMK A01 T00881002  RH  053%=      5-min Rain = 0
KAM1 161622Z 26012KT 09/M00 A2999 RMK A01 T00881002  RH  053%=      5-min Rain = 0
KAM1 161623Z 25010KT 09/00 A2999 RMK A01 T00880001  RH  054%=      5-min Rain = 0
KAM1 161624Z 27010KT 09/00 A2999 RMK A01 T00900002  RH  054%=      5-min Rain = 0
KAM1 161625Z 27009KT 09/00 A2999 RMK A01 T00930003  RH  053%=      5-min Rain = 0
KAM1 161626Z 25011KT 10/00 A2999 RMK A01 T00950003  RH  053%=      5-min Rain = 0
KAM1 161627Z 25012KT 10/00 A2999 RMK A01 T00950002  RH  052%=      5-min Rain = 0
KAM1 161628Z 26010KT 09/00 A2999 RMK A01 T00940000  RH  052%=      5-min Rain = 0
KAM1 161629Z 26012KT 10/00 A2999 RMK A01 T009500-0  RH  051%=      5-min Rain = 0
KAM1 161630Z 26011KT 10/M00 A2999 RMK A01 T00951001  RH  051%=      5-min Rain = 0
KAM1 161631Z 25012KT 09/M00 A2999 RMK A01 T00941001  RH  052%=      5-min Rain = 0
KAM1 161632Z 25012KT 09/M00 A2999 RMK A01 T00931001  RH  052%=      5-min Rain = 0
KAM1 161633Z 25009KT 09/00 A2999 RMK A01 T00930001  RH  053%=      5-min Rain = 0
KAM1 161634Z 25009KT 10/00 A2999 RMK A01 T00960004  RH  053%=      5-min Rain = 0
KAM1 161635Z 25011KT 10/01 A2999 RMK A01 T00990005  RH  052%=      5-min Rain = 0
KAM1 161636Z 25010KT 10/00 A2998 RMK A01 T00990003  RH  051%=      5-min Rain = 0
KAM1 161637Z 25009KT 10/00 A2998 RMK A01 T00980003  RH  052%=      5-min Rain = 0
KAM1 161638Z 26009KT 10/01 A2998 RMK A01 T00990006  RH  052%=      5-min Rain = 0
KAM1 161639Z 26012KT 10/01 A2998 RMK A01 T01010005  RH  051%=      5-min Rain = 0
KAM1 161640Z 26011KT 10/00 A2998 RMK A01 T01010003  RH  051%=      5-min Rain = 0
KAM1 161641Z 25011KT 10/00 A2998 RMK A01 T01010003  RH  051%=      5-min Rain = 0
KAM1 161642Z 25011KT 10/00 A2998 RMK A01 T01000003  RH  051%=      5-min Rain = 0
KAM1 161643Z 25011KT 10/01 A2998 RMK A01 T00990005  RH  052%=      5-min Rain = 0
KAM1 161644Z 25011KT 10/01 A2998 RMK A01 T01010006  RH  051%=      5-min Rain = 0
KAM1 161645Z 25011KT 10/00 A2998 RMK A01 T01010004  RH  051%=      5-min Rain = 0
KAM1 161646Z 25011KT 10/01 A2998 RMK A01 T01000005  RH  052%=      5-min Rain = 0
KAM1 161647Z 25009KT 10/01 A2998 RMK A01 T01010006  RH  052%=      5-min Rain = 0
KAM1 161648Z 25010KT 10/01 A2998 RMK A01 T01010006  RH  052%=      5-min Rain = 0
KAM1 161649Z 26010KT 10/01 A2998 RMK A01 T01020007  RH  052%=      5-min Rain = 0
KAM1 161650Z 24010KT 10/01 A2998 RMK A01 T01040008  RH  051%=      5-min Rain = 0
KAM1 161651Z 25008KT 11/01 A2998 RMK A01 T01050008  RH  051%=      5-min Rain = 0
KAM1 161652Z 26010KT 11/01 A2998 RMK A01 T01060010  RH  051%=      5-min Rain = 0
KAM1 161653Z 26009KT 11/01 A2998 RMK A01 T01060009  RH  051%=      5-min Rain = 0
KAM1 161654Z 26011KT 11/01 A2998 RMK A01 T01060009  RH  051%=      5-min Rain = 0
KAM1 161655Z 26009KT 11/01 A2998 RMK A01 T01070009  RH  051%=      5-min Rain = 0
KAM1 161656Z 26010KT 11/01 A2998 RMK A01 T01080010  RH  051%=      5-min Rain = 0
KAM1 161657Z 26009KT 11/01 A2998 RMK A01 T01090012  RH  051%=      5-min Rain = 0
KAM1 161658Z 25009KT 11/01 A2998 RMK A01 T01110014  RH  051%=      5-min Rain = 0
KAM1 161659Z 24009KT 11/01 A2998 RMK A01 T01140014  RH  050%=      5-min Rain = 0
KAM1 161700Z 26010KT 11/01 A2998 RMK A01 T01140012  RH  050%=      5-min Rain = 0
KAM1 161701Z 26009KT 11/01 A2998 RMK A01 T01120012  RH  050%=      5-min Rain = 0
KAM1 161702Z 26010KT 11/01 A2998 RMK A01 T01140013  RH  050%=      5-min Rain = 0
KAM1 161703Z 25009KT 11/01 A2998 RMK A01 T01130013  RH  050%=      5-min Rain = 0
KAM1 161704Z 25009KT 11/01 A2998 RMK A01 T01130014  RH  050%=      5-min Rain = 0
KAM1 161705Z 24008KT 11/01 A2998 RMK A01 T01130014  RH  051%=      5-min Rain = 0
KAM1 161706Z 23007KT 12/02 A2998 RMK A01 T01170018  RH  051%=      5-min Rain = 0
KAM1 161707Z 24008KT 12/02 A2998 RMK A01 T01230020  RH  049%=      5-min Rain = 0
KAM1 161708Z 24008KT 13/02 A2998 RMK A01 T01280018  RH  047%=      5-min Rain = 0
KAM1 161709Z 24009KT 13/02 A2998 RMK A01 T01290015  RH  046%=      5-min Rain = 0
KAM1 161710Z 22011KT 13/01 A2998 RMK A01 T01290014  RH  046%=      5-min Rain = 0
KAM1 161711Z 24010KT 13/01 A2998 RMK A01 T01280012  RH  045%=      5-min Rain = 0
KAM1 161712Z 24011KT 13/01 A2998 RMK A01 T01270012  RH  045%=      5-min Rain = 0
KAM1 161713Z 23011KT 13/01 A2998 RMK A01 T01260010  RH  045%=      5-min Rain = 0
KAM1 161714Z 25012KT 13/01 A2998 RMK A01 T01260011  RH  045%=      5-min Rain = 0
KAM1 161715Z 24013KT 13/01 A2998 RMK A01 T01270010  RH  045%=      5-min Rain = 0
KAM1 161716Z 24013KT 13/01 A2998 RMK A01 T01270009  RH  045%=      5-min Rain = 0
KAM1 161717Z 24012KT 13/01 A2998 RMK A01 T01260008  RH  045%=      5-min Rain = 0
KAM1 161718Z 24011KT 12/01 A2998 RMK A01 T01240010  RH  046%=      5-min Rain = 0
KAM1 161719Z 25011KT 13/01 A2998 RMK A01 T01260011  RH  045%=      5-min Rain = 0
KAM1 161720Z 23010KT 13/01 A2998 RMK A01 T01270012  RH  045%=      5-min Rain = 0
KAM1 161721Z 23011KT 13/01 A2997 RMK A01 T01300013  RH  045%=      5-min Rain = 0
KAM1 161722Z 23014KT 13/01 A2997 RMK A01 T01310013  RH  045%=      5-min Rain = 0
KAM1 161723Z 24011KT 13/01 A2998 RMK A01 T01310012  RH  044%=      5-min Rain = 0
KAM1 161724Z 23010KT 13/01 A2998 RMK A01 T01300010  RH  044%=      5-min Rain = 0
KAM1 161725Z 23012KT 13/01 A2998 RMK A01 T01290010  RH  044%=      5-min Rain = 0
KAM1 161726Z 23010KT 13/01 A2998 RMK A01 T01290011  RH  045%=      5-min Rain = 0
KAM1 161727Z 24011KT 13/01 A2998 RMK A01 T01300012  RH  045%=      5-min Rain = 0
KAM1 161728Z 24010KT 13/01 A2998 RMK A01 T01310014  RH  045%=      5-min Rain = 0
KAM1 161729Z 24011KT 13/01 A2997 RMK A01 T01320014  RH  045%=      5-min Rain = 0
KAM1 161730Z 24013KT 13/01 A2997 RMK A01 T01340011  RH  043%=      5-min Rain = 0
KAM1 161731Z 24012KT 13/01 A2997 RMK A01 T01320010  RH  043%=      5-min Rain = 0
KAM1 161732Z 24009KT 13/01 A2997 RMK A01 T01320013  RH  044%=      5-min Rain = 0
KAM1 161733Z 24011KT 14/02 A2997 RMK A01 T01350016  RH  044%=      5-min Rain = 0
KAM1 161734Z 24012KT 14/01 A2997 RMK A01 T01370014  RH  043%=      5-min Rain = 0
KAM1 161735Z 24011KT 14/01 A2997 RMK A01 T01370014  RH  043%=      5-min Rain = 0
KAM1 161736Z 23009KT 14/01 A2997 RMK A01 T01360014  RH  044%=      5-min Rain = 0
KAM1 161737Z 23010KT 13/01 A2997 RMK A01 T01340014  RH  044%=      5-min Rain = 0
KAM1 161738Z 22008KT 13/02 A2997 RMK A01 T01340017  RH  045%=      5-min Rain = 0
KAM1 161739Z 23008KT 14/02 A2997 RMK A01 T01360019  RH  045%=      5-min Rain = 0
KAM1 161740Z 23009KT 14/02 A2997 RMK A01 T01390019  RH  044%=      5-min Rain = 0
KAM1 161741Z 24009KT 14/02 A2997 RMK A01 T01400019  RH  044%=      5-min Rain = 0
KAM1 161742Z 23009KT 14/02 A2997 RMK A01 T01420017  RH  043%=      5-min Rain = 0
KAM1 161743Z 23008G13KT 14/02 A2997 RMK A01 T01410019  RH  044%=      5-min Rain = 0
KAM1 161744Z 23011KT 14/02 A2997 RMK A01 T01440018  RH  043%=      5-min Rain = 0
KAM1 161745Z 23011KT 14/02 A2997 RMK A01 T01440017  RH  042%=      5-min Rain = 0
KAM1 161746Z 23013KT 14/02 A2997 RMK A01 T01430015  RH  042%=      5-min Rain = 0
KAM1 161747Z 23013KT 14/01 A2997 RMK A01 T01420013  RH  041%=      5-min Rain = 0
KAM1 161748Z 23011KT 14/01 A2997 RMK A01 T01420013  RH  041%=      5-min Rain = 0
KAM1 161749Z 23009KT 14/01 A2997 RMK A01 T01420013  RH  042%=      5-min Rain = 0
KAM1 161750Z 23008KT 15/02 A2996 RMK A01 T01450016  RH  042%=      5-min Rain = 0
KAM1 161751Z 23012KT 15/02 A2996 RMK A01 T01490017  RH  041%=      5-min Rain = 0
KAM1 161752Z 24013KT 15/01 A2996 RMK A01 T01500011  RH  039%=      5-min Rain = 0
KAM1 161753Z 24013KT 15/01 A2996 RMK A01 T01470010  RH  039%=      5-min Rain = 0
KAM1 161754Z 25011KT 15/01 A2996 RMK A01 T01470010  RH  039%=      5-min Rain = 0
KAM1 161755Z 25012KT 15/01 A2996 RMK A01 T01470009  RH  039%=      5-min Rain = 0
KAM1 161756Z 24010KT 15/01 A2996 RMK A01 T01480012  RH  039%=      5-min Rain = 0
KAM1 161757Z 24011KT 15/01 A2996 RMK A01 T01500013  RH  039%=      5-min Rain = 0
KAM1 161758Z 24012KT 15/01 A2996 RMK A01 T01500012  RH  039%=      5-min Rain = 0
KAM1 161759Z 24011KT 15/01 A2996 RMK A01 T01500013  RH  039%=      5-min Rain = 0
KAM1 161800Z 24010KT 15/02 A2996 RMK A01 T01510015  RH  040%=      5-min Rain = 0
KAM1 161801Z 24012KT 16/02 A2996 RMK A01 T01550015  RH  039%=      5-min Rain = 0
KAM1 161802Z 24011KT 15/01 A2996 RMK A01 T01510011  RH  039%=      5-min Rain = 0
KAM1 161803Z 24010KT 15/01 A2996 RMK A01 T01490011  RH  039%=      5-min Rain = 0
KAM1 161804Z 23009KT 15/01 A2996 RMK A01 T01490012  RH  039%=      5-min Rain = 0
KAM1 161805Z 23011KT 15/01 A2996 RMK A01 T01500013  RH  039%=      5-min Rain = 0
KAM1 161806Z 23010KT 15/02 A2996 RMK A01 T01520015  RH  040%=      5-min Rain = 0
KAM1 161807Z 24010KT 16/02 A2996 RMK A01 T01560019  RH  039%=      5-min Rain = 0
KAM1 161808Z 24009KT 16/02 A2996 RMK A01 T01580016  RH  038%=      5-min Rain = 0
KAM1 161809Z 26014KT 16/01 A2996 RMK A01 T01580014  RH  037%=      5-min Rain = 0
KAM1 161810Z 25012KT 16/01 A2996 RMK A01 T01580013  RH  037%=      5-min Rain = 0
KAM1 161811Z 24010KT 16/01 A2996 RMK A01 T01580009  RH  037%=      5-min Rain = 0
KAM1 161812Z 25011KT 16/01 A2996 RMK A01 T01580011  RH  037%=      5-min Rain = 0
KAM1 161813Z 25012KT 16/01 A2995 RMK A01 T01600013  RH  037%=      5-min Rain = 0
KAM1 161814Z 24008KT 16/01 A2995 RMK A01 T01610014  RH  037%=      5-min Rain = 0
KAM1 161815Z 25012KT 16/01 A2995 RMK A01 T01620012  RH  036%=      5-min Rain = 0
KAM1 161816Z 24011KT 16/01 A2995 RMK A01 T01600008  RH  036%=      5-min Rain = 0
KAM1 161817Z 25010KT 16/01 A2995 RMK A01 T01580008  RH  036%=      5-min Rain = 0
KAM1 161818Z 24010KT 16/01 A2995 RMK A01 T01590009  RH  036%=      5-min Rain = 0
KAM1 161819Z 25013KT 16/01 A2995 RMK A01 T01620010  RH  036%=      5-min Rain = 0
KAM1 161820Z 25012KT 16/01 A2995 RMK A01 T01630008  RH  035%=      5-min Rain = 0
KAM1 161821Z 26012KT 16/01 A2995 RMK A01 T01620006  RH  035%=      5-min Rain = 0
KAM1 161822Z 26012KT 16/01 A2995 RMK A01 T01620008  RH  035%=      5-min Rain = 0
KAM1 161823Z 25009KT 16/01 A2995 RMK A01 T01620011  RH  036%=      5-min Rain = 0
KAM1 161824Z 22012G18KT 17/01 A2995 RMK A01 T01660011  RH  035%=      5-min Rain = 0
KAM1 161825Z 23014KT 17/00 A2995 RMK A01 T01680002  RH  032%=      5-min Rain = 0
KAM1 161826Z 24012KT 16/M00 A2994 RMK A01 T01641002  RH  032%=      5-min Rain = 0
KAM1 161827Z 24011G16KT 16/00 A2994 RMK A01 T01640001  RH  033%=      5-min Rain = 0
KAM1 161828Z 25013KT 17/00 A2994 RMK A01 T01650003  RH  033%=      5-min Rain = 0
KAM1 161829Z 26013KT 17/00 A2994 RMK A01 T01650003  RH  033%=      5-min Rain = 0
KAM1 161830Z 25013KT 17/01 A2994 RMK A01 T01660006  RH  034%=      5-min Rain = 0
KAM1 161831Z 24014KT 17/01 A2994 RMK A01 T01680005  RH  033%=      5-min Rain = 0
KAM1 161832Z 25012KT 17/00 A2994 RMK A01 T01670004  RH  033%=      5-min Rain = 0
KAM1 161833Z 25013KT 17/01 A2994 RMK A01 T01680005  RH  033%=      5-min Rain = 0
KAM1 161834Z 24011KT 17/00 A2994 RMK A01 T01690004  RH  033%=      5-min Rain = 0
KAM1 161835Z 25011KT 17/00 A2994 RMK A01 T01660002  RH  033%=      5-min Rain = 0
KAM1 161836Z 25011KT 17/01 A2994 RMK A01 T01660005  RH  034%=      5-min Rain = 0
KAM1 161837Z 25011KT 17/01 A2994 RMK A01 T01660005  RH  033%=      5-min Rain = 0
KAM1 161838Z 25011KT 17/01 A2994 RMK A01 T01680007  RH  034%=      5-min Rain = 0
KAM1 161839Z 26011KT 17/01 A2994 RMK A01 T01690006  RH  033%=      5-min Rain = 0
KAM1 161840Z 22012KT 17/01 A2994 RMK A01 T01690005  RH  033%=      5-min Rain = 0
KAM1 161841Z 22014KT 17/00 A2994 RMK A01 T017100-0  RH  031%=      5-min Rain = 0
KAM1 161842Z 23012KT 17/M00 A2994 RMK A01 T01721002  RH  031%=      5-min Rain = 0
KAM1 161843Z 24011KT 17/M00 A2994 RMK A01 T01701001  RH  032%=      5-min Rain = 0
KAM1 161844Z 24014G19KT 17/M00 A2993 RMK A01 T01701002  RH  031%=      5-min Rain = 0
KAM1 161845Z 24015KT 17/M01 A2994 RMK A01 T01711009  RH  029%=      5-min Rain = 0
KAM1 161846Z 24014G19KT 17/M01 A2993 RMK A01 T01701008  RH  030%=      5-min Rain = 0
KAM1 161847Z 23014KT 17/M01 A2993 RMK A01 T01701007  RH  030%=      5-min Rain = 0
KAM1 161848Z 24015KT 17/M01 A2993 RMK A01 T01711009  RH  029%=      5-min Rain = 0
KAM1 161849Z 24013KT 17/M01 A2993 RMK A01 T01681011  RH  029%=      5-min Rain = 0
KAM1 161850Z 23012KT 17/M01 A2993 RMK A01 T01661010  RH  030%=      5-min Rain = 0
KAM1 161851Z 24012KT 17/M01 A2993 RMK A01 T01661009  RH  030%=      5-min Rain = 0
KAM1 161852Z 24013KT 17/M01 A2993 RMK A01 T01681011  RH  029%=      5-min Rain = 0
KAM1 161853Z 24014KT 17/M02 A2993 RMK A01 T01681016  RH  028%=      5-min Rain = 0
KAM1 161854Z 24012G18KT 17/M01 A2993 RMK A01 T01691011  RH  029%=      5-min Rain = 0
KAM1 161855Z 24012KT 17/M01 A2993 RMK A01 T01731012  RH  028%=      5-min Rain = 0
KAM1 161856Z 24013KT 18/M02 A2993 RMK A01 T01751021  RH  026%=      5-min Rain = 0
KAM1 161857Z 25011G17KT 17/M02 A2993 RMK A01 T01731021  RH  026%=      5-min Rain = 0
KAM1 161858Z 24013KT 18/M02 A2993 RMK A01 T01751020  RH  026%=      5-min Rain = 0
KAM1 161859Z 25013KT 18/M02 A2993 RMK A01 T01761016  RH  027%=      5-min Rain = 0
KAM1 161900Z 24012KT 18/M01 A2993 RMK A01 T01781011  RH  028%=      5-min Rain = 0
KAM1 161901Z 24013KT 18/M01 A2993 RMK A01 T01761012  RH  028%=      5-min Rain = 0
KAM1 161902Z 24013KT 18/M01 A2992 RMK A01 T01751010  RH  028%=      5-min Rain = 0
KAM1 161903Z 24010KT 18/M01 A2993 RMK A01 T01761006  RH  029%=      5-min Rain = 0
KAM1 161904Z 24012KT 18/M01 A2992 RMK A01 T01771009  RH  028%=      5-min Rain = 0
KAM1 161905Z 25010KT 18/M01 A2992 RMK A01 T01761013  RH  028%=      5-min Rain = 0
KAM1 161906Z 26010KT 18/M01 A2992 RMK A01 T01761010  RH  028%=      5-min Rain = 0
KAM1 161907Z 24014KT 18/M01 A2992 RMK A01 T01751005  RH  029%=      5-min Rain = 0
KAM1 161908Z 23012KT 18/M00 A2992 RMK A01 T01771002  RH  030%=      5-min Rain = 0
KAM1 161909Z 23008KT 18/M00 A2992 RMK A01 T01781001  RH  030%=      5-min Rain = 0
KAM1 161910Z 23015G20KT 18/M01 A2992 RMK A01 T01801007  RH  028%=      5-min Rain = 0
KAM1 161911Z 22015KT 18/M02 A2992 RMK A01 T01811016  RH  026%=      5-min Rain = 0
KAM1 161912Z 24015KT 18/M03 A2992 RMK A01 T01811025  RH  024%=      5-min Rain = 0
KAM1 161913Z 24015KT 18/M03 A2992 RMK A01 T01791031  RH  024%=      5-min Rain = 0
KAM1 161914Z 23013KT 18/M02 A2992 RMK A01 T01771021  RH  026%=      5-min Rain = 0
KAM1 161915Z 24017KT 18/M03 A2992 RMK A01 T01771030  RH  024%=      5-min Rain = 0
KAM1 161916Z 25013G18KT 18/M04 A2992 RMK A01 T01771040  RH  022%=      5-min Rain = 0
KAM1 161917Z 24014KT 18/M04 A2992 RMK A01 T01781035  RH  023%=      5-min Rain = 0
KAM1 161918Z 25013KT 18/M03 A2992 RMK A01 T01781031  RH  024%=      5-min Rain = 0
KAM1 161919Z 24015KT 18/M03 A2992 RMK A01 T01791030  RH  024%=      5-min Rain = 0
KAM1 161920Z 23012KT 18/M03 A2992 RMK A01 T01791025  RH  025%=      5-min Rain = 0
KAM1 161921Z 23012KT 18/M02 A2992 RMK A01 T01791023  RH  025%=      5-min Rain = 0
KAM1 161922Z 23011KT 18/M02 A2992 RMK A01 T01801020  RH  026%=      5-min Rain = 0
KAM1 161923Z 21011KT 18/M02 A2992 RMK A01 T01801015  RH  027%=      5-min Rain = 0
KAM1 161924Z 23009KT 18/M02 A2992 RMK A01 T01811015  RH  026%=      5-min Rain = 0
KAM1 161925Z 23010KT 18/M01 A2991 RMK A01 T01801014  RH  027%=      5-min Rain = 0
KAM1 161926Z 23010KT 18/M01 A2991 RMK A01 T01821010  RH  027%=      5-min Rain = 0
KAM1 161927Z 24012KT 19/M01 A2991 RMK A01 T01871013  RH  026%=      5-min Rain = 0
KAM1 161928Z 23013G18KT 19/M02 A2991 RMK A01 T01861018  RH  025%=      5-min Rain = 0
KAM1 161929Z 22012KT 19/M02 A2991 RMK A01 T01851019  RH  025%=      5-min Rain = 0
KAM1 161930Z 22013KT 18/M02 A2991 RMK A01 T01841017  RH  025%=      5-min Rain = 0
KAM1 161931Z 22013KT 18/M01 A2991 RMK A01 T01841013  RH  026%=      5-min Rain = 0
KAM1 161932Z 22009KT 18/M02 A2991 RMK A01 T01821019  RH  026%=      5-min Rain = 0
KAM1 161933Z 23010KT 18/M02 A2991 RMK A01 T01791015  RH  027%=      5-min Rain = 0
KAM1 161934Z 23012KT 18/M01 A2991 RMK A01 T01811013  RH  027%=      5-min Rain = 0
KAM1 161935Z 22012KT 18/M02 A2991 RMK A01 T01821019  RH  025%=      5-min Rain = 0
KAM1 161936Z 23010KT 18/M02 A2991 RMK A01 T01821021  RH  025%=      5-min Rain = 0
KAM1 161937Z 23013KT 18/M02 A2991 RMK A01 T01821017  RH  026%=      5-min Rain = 0
KAM1 161938Z 22013KT 18/M01 A2991 RMK A01 T01811014  RH  027%=      5-min Rain = 0
KAM1 161939Z 21010KT 18/M01 A2991 RMK A01 T01801012  RH  027%=      5-min Rain = 0
KAM1 161940Z 23009KT 18/M01 A2991 RMK A01 T01791013  RH  027%=      5-min Rain = 0
KAM1 161941Z 23009G16KT 18/M01 A2991 RMK A01 T01781011  RH  028%=      5-min Rain = 0
KAM1 161942Z 24013KT 18/M02 A2991 RMK A01 T01801015  RH  026%=      5-min Rain = 0
KAM1 161943Z 23012KT 19/M02 A2991 RMK A01 T01861015  RH  026%=      5-min Rain = 0
KAM1 161944Z 22011KT 19/M02 A2991 RMK A01 T01871024  RH  024%=      5-min Rain = 0
KAM1 161945Z 23009G14KT 18/M03 A2991 RMK A01 T01841025  RH  024%=      5-min Rain = 0
KAM1 161946Z 23010KT 18/M02 A2991 RMK A01 T01811022  RH  025%=      5-min Rain = 0
KAM1 161947Z 24010KT 18/M02 A2991 RMK A01 T01821015  RH  026%=      5-min Rain = 0
KAM1 161948Z 22007KT 18/M01 A2991 RMK A01 T01831011  RH  027%=      5-min Rain = 0
KAM1 161949Z 22009KT 19/M01 A299 RMK A01 T01871010  RH  026%=      5-min Rain = 0
KAM1 161950Z 22009KT 19/M01 A299 RMK A01 T01861012  RH  026%=      5-min Rain = 0
KAM1 161951Z 22012KT 19/M01 A299 RMK A01 T01871012  RH  026%=      5-min Rain = 0
KAM1 161952Z 21014KT 19/M02 A299 RMK A01 T01901020  RH  024%=      5-min Rain = 0
KAM1 161953Z 22011KT 19/M02 A299 RMK A01 T01871024  RH  024%=      5-min Rain = 0
KAM1 161954Z 23011KT 19/M02 A299 RMK A01 T01861021  RH  025%=      5-min Rain = 0
KAM1 161955Z 23012KT 19/M02 A299 RMK A01 T01861016  RH  025%=      5-min Rain = 0
KAM1 161956Z 23009KT 19/M02 A299 RMK A01 T01871016  RH  025%=      5-min Rain = 0
KAM1 161957Z 22014KT 19/M02 A299 RMK A01 T01871021  RH  024%=      5-min Rain = 0
KAM1 161958Z 23012KT 19/M02 A299 RMK A01 T01871023  RH  024%=      5-min Rain = 0
KAM1 161959Z 22014KT 19/M02 A299 RMK A01 T01871015  RH  025%=      5-min Rain = 0
KAM1 162000Z 21014KT 19/M02 A299 RMK A01 T01881017  RH  025%=      5-min Rain = 0
KAM1 162001Z 22013KT 19/M02 A299 RMK A01 T01891021  RH  024%=      5-min Rain = 0
KAM1 162002Z 23010KT 19/M03 A299 RMK A01 T01861025  RH  024%=      5-min Rain = 0
KAM1 162003Z 21012KT 19/M03 A299 RMK A01 T01861026  RH  024%=      5-min Rain = 0
KAM1 162004Z 22011KT 19/M02 A299 RMK A01 T01901023  RH  024%=      5-min Rain = 0
KAM1 162005Z 22011KT 19/M02 A299 RMK A01 T01931024  RH  023%=      5-min Rain = 0
KAM1 162006Z 22010KT 19/M03 A299 RMK A01 T01911026  RH  023%=      5-min Rain = 0
KAM1 162007Z 23010KT 19/M03 A2989 RMK A01 T01891025  RH  023%=      5-min Rain = 0
KAM1 162008Z 25011KT 19/M02 A2989 RMK A01 T01891023  RH  024%=      5-min Rain = 0
KAM1 162009Z 25014KT 19/M03 A2989 RMK A01 T01901025  RH  023%=      5-min Rain = 0
KAM1 162010Z 24012KT 19/M02 A2989 RMK A01 T01881021  RH  024%=      5-min Rain = 0
KAM1 162011Z 21011KT 19/M02 A2989 RMK A01 T01871021  RH  024%=      5-min Rain = 0
KAM1 162012Z 21010G18KT 19/M02 A2989 RMK A01 T01881023  RH  024%=      5-min Rain = 0
KAM1 162013Z 22015KT 19/M02 A2989 RMK A01 T01891023  RH  024%=      5-min Rain = 0
KAM1 162014Z 23014KT 19/M03 A2989 RMK A01 T01891025  RH  023%=      5-min Rain = 0
KAM1 162015Z 24013KT 19/M03 A2989 RMK A01 T01871030  RH  023%=      5-min Rain = 0
KAM1 162016Z 22014KT 19/M03 A2989 RMK A01 T01871027  RH  023%=      5-min Rain = 0
KAM1 162017Z 22015KT 19/M02 A2989 RMK A01 T01881023  RH  024%=      5-min Rain = 0
KAM1 162018Z 22011KT 19/M02 A2989 RMK A01 T01871023  RH  024%=      5-min Rain = 0
KAM1 162019Z 22012KT 19/M02 A2989 RMK A01 T01871021  RH  024%=      5-min Rain = 0
KAM1 162020Z 22014KT 19/M02 A2989 RMK A01 T01881024  RH  024%=      5-min Rain = 0
KAM1 162021Z 21015KT 19/M03 A2989 RMK A01 T01881025  RH  024%=      5-min Rain = 0
KAM1 162022Z 22013KT 19/M02 A2989 RMK A01 T01891021  RH  024%=      5-min Rain = 0
KAM1 162023Z 22013KT 19/M02 A2989 RMK A01 T01891022  RH  024%=      5-min Rain = 0
KAM1 162024Z 22012KT 19/M02 A2989 RMK A01 T01891024  RH  023%=      5-min Rain = 0
KAM1 162025Z 22009KT 19/M02 A2989 RMK A01 T01891024  RH  023%=      5-min Rain = 0
KAM1 162026Z 22014KT 19/M02 A2989 RMK A01 T01891021  RH  024%=      5-min Rain = 0
KAM1 162027Z 21015KT 19/M02 A2989 RMK A01 T01911020  RH  024%=      5-min Rain = 0
KAM1 162028Z 21012KT 19/M02 A2989 RMK A01 T01921024  RH  023%=      5-min Rain = 0
KAM1 162029Z 21010KT 19/M02 A2989 RMK A01 T01921024  RH  023%=      5-min Rain = 0
KAM1 162030Z 20013KT 19/M02 A2989 RMK A01 T01941023  RH  023%=      5-min Rain = 0
KAM1 162031Z 20012KT 19/M03 A2989 RMK A01 T01931028  RH  022%=      5-min Rain = 0
KAM1 162032Z 20014KT 19/M03 A2989 RMK A01 T01921026  RH  023%=      5-min Rain = 0
KAM1 162033Z 21013KT 19/M03 A2989 RMK A01 T01911028  RH  023%=      5-min Rain = 0
KAM1 162034Z 21012KT 19/M03 A2988 RMK A01 T01901029  RH  022%=      5-min Rain = 0
KAM1 162035Z 20012KT 19/M03 A2988 RMK A01 T01911028  RH  023%=      5-min Rain = 0
KAM1 162036Z 20012KT 19/M02 A2988 RMK A01 T01941024  RH  023%=      5-min Rain = 0
KAM1 162037Z 23014KT 20/M02 A2988 RMK A01 T01961021  RH  023%=      5-min Rain = 0
KAM1 162038Z 24012KT 20/M02 A2989 RMK A01 T01951024  RH  023%=      5-min Rain = 0
KAM1 162039Z 24011KT 19/M02 A2988 RMK A01 T01911023  RH  023%=      5-min Rain = 0
KAM1 162040Z 23008KT 19/M02 A2988 RMK A01 T01901020  RH  024%=      5-min Rain = 0
KAM1 162041Z 22009G15KT 19/M02 A2988 RMK A01 T01941020  RH  023%=      5-min Rain = 0
KAM1 162042Z 21014KT 20/M03 A2988 RMK A01 T01981026  RH  022%=      5-min Rain = 0
KAM1 162043Z 22011KT 19/M03 A2988 RMK A01 T01941030  RH  022%=      5-min Rain = 0
KAM1 162044Z 23009KT 19/M03 A2988 RMK A01 T01921027  RH  022%=      5-min Rain = 0
KAM1 162045Z 24009KT 19/M03 A2988 RMK A01 T01931025  RH  023%=      5-min Rain = 0
KAM1 162046Z 23009KT 19/M02 A2988 RMK A01 T01931024  RH  023%=      5-min Rain = 0
KAM1 162047Z 23011KT 19/M02 A2988 RMK A01 T01931021  RH  023%=      5-min Rain = 0
KAM1 162048Z 22011KT 20/M02 A2988 RMK A01 T01961017  RH  024%=      5-min Rain = 0
KAM1 162049Z 22013KT 20/M02 A2988 RMK A01 T01961023  RH  023%=      5-min Rain = 0
KAM1 162050Z 22012KT 19/M03 A2988 RMK A01 T01941025  RH  023%=      5-min Rain = 0
KAM1 162051Z 22009KT 19/M03 A2988 RMK A01 T01941027  RH  022%=      5-min Rain = 0
KAM1 162052Z 22011KT 20/M03 A2988 RMK A01 T01951025  RH  022%=      5-min Rain = 0
KAM1 162053Z 21015KT 20/M03 A2988 RMK A01 T01961026  RH  022%=      5-min Rain = 0
KAM1 162054Z 21014KT 19/M03 A2988 RMK A01 T01941029  RH  022%=      5-min Rain = 0
KAM1 162055Z 22012G19KT 19/M03 A2988 RMK A01 T01921028  RH  022%=      5-min Rain = 0
KAM1 162056Z 21015KT 19/M03 A2988 RMK A01 T01941026  RH  022%=      5-min Rain = 0
KAM1 162057Z 21012KT 19/M03 A2988 RMK A01 T01941028  RH  022%=      5-min Rain = 0
KAM1 162058Z 22012KT 19/M03 A2988 RMK A01 T01941028  RH  022%=      5-min Rain = 0
KAM1 162059Z 23011KT 19/M04 A2988 RMK A01 T01931035  RH  021%=      5-min Rain = 0
KAM1 162100Z 23009KT 19/M04 A2988 RMK A01 T01941038  RH  020%=      5-min Rain = 0
KAM1 162101Z 23012KT 19/M04 A2988 RMK A01 T01931035  RH  021%=      5-min Rain = 0
KAM1 162102Z 23012KT 19/M03 A2988 RMK A01 T01941034  RH  021%=      5-min Rain = 0
KAM1 162103Z 22012KT 19/M03 A2988 RMK A01 T01931033  RH  021%=      5-min Rain = 0
KAM1 162104Z 21014KT 19/M03 A2988 RMK A01 T01941030  RH  022%=      5-min Rain = 0
KAM1 162105Z 21013KT 20/M03 A2988 RMK A01 T01951032  RH  021%=      5-min Rain = 0
KAM1 162106Z 22013KT 19/M03 A2988 RMK A01 T01931033  RH  022%=      5-min Rain = 0
KAM1 162107Z 23013KT 19/M03 A2988 RMK A01 T01931030  RH  022%=      5-min Rain = 0
KAM1 162108Z 22011KT 19/M03 A2988 RMK A01 T01931029  RH  022%=      5-min Rain = 0
KAM1 162109Z 25012KT 19/M03 A2988 RMK A01 T01931029  RH  022%=      5-min Rain = 0
KAM1 162110Z 24010KT 19/M03 A2988 RMK A01 T01921030  RH  022%=      5-min Rain = 0
KAM1 162111Z 22010KT 19/M02 A2988 RMK A01 T01931024  RH  023%=      5-min Rain = 0
KAM1 162112Z 20014KT 20/M03 A2987 RMK A01 T01961029  RH  022%=      5-min Rain = 0
KAM1 162113Z 23012G18KT 20/M03 A2988 RMK A01 T01971030  RH  021%=      5-min Rain = 0
KAM1 162114Z 22014KT 20/M03 A2987 RMK A01 T01971032  RH  021%=      5-min Rain = 0
KAM1 162115Z 21012KT 20/M03 A2987 RMK A01 T01961034  RH  021%=      5-min Rain = 0
KAM1 162116Z 22013KT 19/M04 A2987 RMK A01 T01941035  RH  021%=      5-min Rain = 0
KAM1 162117Z 21011KT 19/M04 A2987 RMK A01 T01931036  RH  021%=      5-min Rain = 0
KAM1 162118Z 22012KT 19/M03 A2987 RMK A01 T01931034  RH  021%=      5-min Rain = 0
KAM1 162119Z 22013KT 19/M04 A2987 RMK A01 T01941035  RH  021%=      5-min Rain = 0
KAM1 162120Z 23010KT 19/M04 A2987 RMK A01 T01931037  RH  021%=      5-min Rain = 0
KAM1 162121Z 21016KT 19/M04 A2987 RMK A01 T01931038  RH  021%=      5-min Rain = 0
KAM1 162122Z 22015KT 19/M04 A2987 RMK A01 T01931039  RH  020%=      5-min Rain = 0
KAM1 162123Z 22013KT 19/M04 A2987 RMK A01 T01921037  RH  021%=      5-min Rain = 0
KAM1 162124Z 23014KT 19/M04 A2987 RMK A01 T01931035  RH  021%=      5-min Rain = 0
KAM1 162125Z 23011KT 19/M04 A2987 RMK A01 T01921037  RH  021%=      5-min Rain = 0
KAM1 162126Z 23010KT 19/M04 A2987 RMK A01 T01911035  RH  021%=      5-min Rain = 0
KAM1 162127Z 22014KT 19/M03 A2987 RMK A01 T01921031  RH  022%=      5-min Rain = 0
KAM1 162128Z 22013KT 19/M03 A2987 RMK A01 T01941027  RH  022%=      5-min Rain = 0
KAM1 162129Z 23012KT 19/M03 A2987 RMK A01 T01941028  RH  022%=      5-min Rain = 0
KAM1 162130Z 22011KT 19/M03 A2987 RMK A01 T01941026  RH  022%=      5-min Rain = 0
KAM1 162131Z 22009KT 20/M02 A2987 RMK A01 T01951024  RH  023%=      5-min Rain = 0
KAM1 162132Z 23009KT 20/M02 A2987 RMK A01 T01971023  RH  023%=      5-min Rain = 0
KAM1 162133Z 23011KT 20/M03 A2987 RMK A01 T01961025  RH  022%=      5-min Rain = 0
KAM1 162134Z 22014KT 19/M03 A2986 RMK A01 T01941027  RH  022%=      5-min Rain = 0
KAM1 162135Z 23012KT 19/M03 A2986 RMK A01 T01941027  RH  022%=      5-min Rain = 0
KAM1 162136Z 24012KT 20/M03 A2986 RMK A01 T01961026  RH  022%=      5-min Rain = 0
KAM1 162137Z 22012KT 20/M03 A2986 RMK A01 T01971028  RH  022%=      5-min Rain = 0
KAM1 162138Z 21014KT 20/M03 A2986 RMK A01 T01951032  RH  021%=      5-min Rain = 0
KAM1 162139Z 22009KT 19/M03 A2986 RMK A01 T01931034  RH  021%=      5-min Rain = 0
KAM1 162140Z 22010KT 19/M03 A2986 RMK A01 T01931030  RH  022%=      5-min Rain = 0
KAM1 162141Z 21013KT 19/M03 A2986 RMK A01 T01941026  RH  022%=      5-min Rain = 0
KAM1 162142Z 21012KT 20/M02 A2986 RMK A01 T01951023  RH  023%=      5-min Rain = 0
KAM1 162143Z 22013KT 20/M03 A2986 RMK A01 T01971029  RH  022%=      5-min Rain = 0
KAM1 162144Z 22012KT 20/M03 A2986 RMK A01 T01951032  RH  021%=      5-min Rain = 0
KAM1 162145Z 21012KT 20/M03 A2986 RMK A01 T01951032  RH  021%=      5-min Rain = 0
KAM1 162146Z 21014KT 20/M04 A2986 RMK A01 T01961035  RH  021%=      5-min Rain = 0
KAM1 162147Z 22013KT 20/M04 A2986 RMK A01 T01961037  RH  020%=      5-min Rain = 0
KAM1 162148Z 22013G18KT 20/M03 A2986 RMK A01 T01951032  RH  021%=      5-min Rain = 0
KAM1 162149Z 23015KT 19/M03 A2986 RMK A01 T01941026  RH  022%=      5-min Rain = 0
KAM1 162150Z 24014KT 19/M03 A2986 RMK A01 T01921026  RH  023%=      5-min Rain = 0
KAM1 162151Z 24011KT 19/M02 A2986 RMK A01 T01901023  RH  023%=      5-min Rain = 0
KAM1 162152Z 23012KT 19/M02 A2986 RMK A01 T01911022  RH  024%=      5-min Rain = 0
KAM1 162153Z 22013KT 19/M02 A2986 RMK A01 T01911023  RH  023%=      5-min Rain = 0
KAM1 162154Z 22013KT 19/M02 A2986 RMK A01 T01911022  RH  023%=      5-min Rain = 0
KAM1 162155Z 21012KT 19/M02 A2986 RMK A01 T01921022  RH  023%=      5-min Rain = 0
KAM1 162156Z 20013KT 19/M02 A2986 RMK A01 T01911021  RH  024%=      5-min Rain = 0
KAM1 162157Z 21013KT 19/M02 A2986 RMK A01 T01911019  RH  024%=      5-min Rain = 0
KAM1 162158Z 21014KT 19/M02 A2986 RMK A01 T01911019  RH  024%=      5-min Rain = 0
KAM1 162159Z 21014KT 19/M02 A2986 RMK A01 T01921021  RH  024%=      5-min Rain = 0
KAM1 162200Z 22010KT 19/M02 A2986 RMK A01 T01921020  RH  024%=      5-min Rain = 0
KAM1 162201Z 21011KT 19/M02 A2986 RMK A01 T01921019  RH  024%=      5-min Rain = 0
KAM1 162202Z 22012KT 19/M02 A2986 RMK A01 T01931021  RH  023%=      5-min Rain = 0
KAM1 162203Z 23011G16KT 19/M02 A2986 RMK A01 T01931023  RH  023%=      5-min Rain = 0
KAM1 162204Z 23011KT 19/M03 A2986 RMK A01 T01941026  RH  023%=      5-min Rain = 0
KAM1 162205Z 22012G17KT 19/M03 A2986 RMK A01 T01921025  RH  023%=      5-min Rain = 0
KAM1 162206Z 21014KT 19/M02 A2986 RMK A01 T01921021  RH  024%=      5-min Rain = 0
KAM1 162207Z 21011KT 19/M02 A2986 RMK A01 T01911021  RH  024%=      5-min Rain = 0
KAM1 162208Z 21012KT 19/M02 A2986 RMK A01 T01901021  RH  024%=      5-min Rain = 0
KAM1 162209Z 21015KT 19/M02 A2986 RMK A01 T01911022  RH  023%=      5-min Rain = 0
KAM1 162210Z 21013KT 19/M03 A2986 RMK A01 T01911026  RH  023%=      5-min Rain = 0
KAM1 162211Z 21010KT 19/M03 A2986 RMK A01 T01901027  RH  023%=      5-min Rain = 0
KAM1 162212Z 22015KT 19/M03 A2986 RMK A01 T01911025  RH  023%=      5-min Rain = 0
KAM1 162213Z 21014KT 19/M03 A2986 RMK A01 T01911028  RH  022%=      5-min Rain = 0
KAM1 162214Z 21012G17KT 19/M03 A2986 RMK A01 T01901029  RH  023%=      5-min Rain = 0
KAM1 162215Z 21012KT 19/M03 A2986 RMK A01 T01891025  RH  023%=      5-min Rain = 0
KAM1 162216Z 22011KT 19/M02 A2986 RMK A01 T01901024  RH  023%=      5-min Rain = 0
KAM1 162217Z 23012KT 19/M03 A2986 RMK A01 T01911026  RH  023%=      5-min Rain = 0
KAM1 162218Z 23012KT 19/M02 A2986 RMK A01 T01901024  RH  023%=      5-min Rain = 0
KAM1 162219Z 22011KT 19/M02 A2986 RMK A01 T01891022  RH  024%=      5-min Rain = 0
KAM1 162220Z 22013KT 19/M02 A2986 RMK A01 T01891021  RH  024%=      5-min Rain = 0
KAM1 162221Z 23014KT 19/M03 A2986 RMK A01 T01901027  RH  023%=      5-min Rain = 0
KAM1 162222Z 22014KT 19/M03 A2986 RMK A01 T01891031  RH  022%=      5-min Rain = 0
KAM1 162223Z 22014KT 19/M03 A2986 RMK A01 T01881029  RH  023%=      5-min Rain = 0
KAM1 162224Z 22013KT 19/M03 A2986 RMK A01 T01881029  RH  023%=      5-min Rain = 0
KAM1 162225Z 21014KT 19/M03 A2986 RMK A01 T01871029  RH  023%=      5-min Rain = 0
KAM1 162226Z 21014KT 19/M03 A2986 RMK A01 T01871032  RH  022%=      5-min Rain = 0
KAM1 162227Z 22014KT 19/M03 A2986 RMK A01 T01861030  RH  023%=      5-min Rain = 0
KAM1 162228Z 20013KT 19/M03 A2986 RMK A01 T01861028  RH  023%=      5-min Rain = 0
KAM1 162229Z 21012KT 19/M03 A2986 RMK A01 T01861028  RH  023%=      5-min Rain = 0
KAM1 162230Z 20012KT 19/M03 A2986 RMK A01 T01861027  RH  023%=      5-min Rain = 0
KAM1 162231Z 21012KT 19/M03 A2986 RMK A01 T01861028  RH  023%=      5-min Rain = 0
KAM1 162232Z 20011KT 19/M03 A2985 RMK A01 T01871028  RH  023%=      5-min Rain = 0
KAM1 162233Z 20010KT 19/M03 A2986 RMK A01 T01871027  RH  023%=      5-min Rain = 0
KAM1 162234Z 21011KT 19/M03 A2985 RMK A01 T01891027  RH  023%=      5-min Rain = 0
KAM1 162235Z 21013KT 19/M03 A2985 RMK A01 T01891026  RH  023%=      5-min Rain = 0
KAM1 162236Z 22015KT 19/M03 A2985 RMK A01 T01881026  RH  023%=      5-min Rain = 0
KAM1 162237Z 21012KT 19/M03 A2985 RMK A01 T01871026  RH  023%=      5-min Rain = 0
KAM1 162238Z 20014KT 19/M03 A2985 RMK A01 T01861025  RH  024%=      5-min Rain = 0
KAM1 162239Z 20012KT 19/M03 A2985 RMK A01 T01861026  RH  024%=      5-min Rain = 0
KAM1 162240Z 20011G17KT 19/M03 A2985 RMK A01 T01851026  RH  024%=      5-min Rain = 0
KAM1 162241Z 21015KT 19/M03 A2985 RMK A01 T01851026  RH  024%=      5-min Rain = 0
KAM1 162242Z 22013KT 19/M03 A2985 RMK A01 T01851026  RH  024%=      5-min Rain = 0
KAM1 162243Z 22012KT 19/M03 A2985 RMK A01 T01851025  RH  024%=      5-min Rain = 0
KAM1 162244Z 21010KT 19/M02 A2985 RMK A01 T01851024  RH  024%=      5-min Rain = 0
KAM1 162245Z 21015KT 19/M02 A2985 RMK A01 T01861024  RH  024%=      5-min Rain = 0
KAM1 162246Z 21014KT 19/M03 A2985 RMK A01 T01851025  RH  024%=      5-min Rain = 0
KAM1 162247Z 22013KT 19/M02 A2985 RMK A01 T01851024  RH  024%=      5-min Rain = 0
KAM1 162248Z 21011KT 19/M03 A2985 RMK A01 T01851025  RH  024%=      5-min Rain = 0
KAM1 162249Z 21010KT 19/M03 A2985 RMK A01 T01851027  RH  024%=      5-min Rain = 0
KAM1 162250Z 21012KT 19/M03 A2985 RMK A01 T01851028  RH  023%=      5-min Rain = 0
KAM1 162251Z 22010KT 19/M03 A2985 RMK A01 T01851027  RH  024%=      5-min Rain = 0
KAM1 162252Z 23011KT 19/M03 A2985 RMK A01 T01851026  RH  024%=      5-min Rain = 0
KAM1 162253Z 23011KT 19/M03 A2985 RMK A01 T01861025  RH  024%=      5-min Rain = 0
KAM1 162254Z 23013KT 19/M03 A2985 RMK A01 T01861025  RH  024%=      5-min Rain = 0
KAM1 162255Z 22012KT 19/M02 A2985 RMK A01 T01851024  RH  024%=      5-min Rain = 0
KAM1 162256Z 22013KT 19/M02 A2985 RMK A01 T01851023  RH  024%=      5-min Rain = 0
KAM1 162257Z 22013KT 18/M02 A2985 RMK A01 T01831024  RH  024%=      5-min Rain = 0
KAM1 162258Z 21011KT 18/M02 A2986 RMK A01 T01831023  RH  025%=      5-min Rain = 0
KAM1 162259Z 21013KT 18/M02 A2985 RMK A01 T01831024  RH  024%=      5-min Rain = 0
KAM1 162300Z 21013KT 18/M03 A2985 RMK A01 T01831026  RH  024%=      5-min Rain = 0
KAM1 162301Z 21014KT 18/M03 A2985 RMK A01 T01831028  RH  024%=      5-min Rain = 0
KAM1 162302Z 21012KT 18/M03 A2985 RMK A01 T01811029  RH  024%=      5-min Rain = 0
KAM1 162303Z 22012KT 18/M03 A2985 RMK A01 T01821028  RH  024%=      5-min Rain = 0
KAM1 162304Z 22014KT 18/M03 A2985 RMK A01 T01821028  RH  024%=      5-min Rain = 0
KAM1 162305Z 21014KT 18/M03 A2985 RMK A01 T01811029  RH  024%=      5-min Rain = 0
KAM1 162306Z 21014KT 18/M03 A2985 RMK A01 T01801031  RH  024%=      5-min Rain = 0
KAM1 162307Z 21014KT 18/M03 A2985 RMK A01 T01801030  RH  024%=      5-min Rain = 0
KAM1 162308Z 21012KT 18/M03 A2985 RMK A01 T01801032  RH  023%=      5-min Rain = 0
KAM1 162309Z 21011KT 18/M03 A2985 RMK A01 T01801033  RH  023%=      5-min Rain = 0
KAM1 162310Z 21012KT 18/M03 A2985 RMK A01 T01801032  RH  023%=      5-min Rain = 0
KAM1 162311Z 22012KT 18/M03 A2985 RMK A01 T01801031  RH  024%=      5-min Rain = 0
KAM1 162312Z 21012KT 18/M03 A2985 RMK A01 T01801030  RH  024%=      5-min Rain = 0
KAM1 162313Z 21011KT 18/M03 A2985 RMK A01 T01801029  RH  024%=      5-min Rain = 0
KAM1 162314Z 21013KT 18/M03 A2985 RMK A01 T01801029  RH  024%=      5-min Rain = 0
KAM1 162315Z 21012KT 18/M03 A2985 RMK A01 T01791029  RH  024%=      5-min Rain = 0
KAM1 162316Z 22012KT 18/M03 A2985 RMK A01 T01781029  RH  024%=      5-min Rain = 0
KAM1 162317Z 22014KT 18/M03 A2985 RMK A01 T01781027  RH  025%=      5-min Rain = 0
KAM1 162318Z 22013KT 18/M02 A2985 RMK A01 T01781024  RH  025%=      5-min Rain = 0
KAM1 162319Z 22014KT 18/M02 A2985 RMK A01 T01781022  RH  025%=      5-min Rain = 0
KAM1 162320Z 21014KT 18/M02 A2985 RMK A01 T01771021  RH  026%=      5-min Rain = 0
KAM1 162321Z 21014KT 18/M02 A2985 RMK A01 T01771020  RH  026%=      5-min Rain = 0
KAM1 162322Z 21016KT 18/M02 A2985 RMK A01 T01771022  RH  026%=      5-min Rain = 0
KAM1 162323Z 20017KT 18/M03 A2985 RMK A01 T01751025  RH  026%=      5-min Rain = 0
KAM1 162324Z 20016KT 17/M02 A2985 RMK A01 T01741024  RH  026%=      5-min Rain = 0
KAM1 162325Z 21015KT 17/M02 A2985 RMK A01 T01731024  RH  026%=      5-min Rain = 0
KAM1 162326Z 21014KT 17/M02 A2985 RMK A01 T01731024  RH  026%=      5-min Rain = 0
KAM1 162327Z 20015KT 17/M02 A2985 RMK A01 T01721024  RH  026%=      5-min Rain = 0
KAM1 162328Z 21013KT 17/M03 A2985 RMK A01 T01711025  RH  026%=      5-min Rain = 0
KAM1 162329Z 20014KT 17/M02 A2985 RMK A01 T01711024  RH  026%=      5-min Rain = 0
KAM1 162330Z 20013KT 17/M03 A2985 RMK A01 T01711025  RH  026%=      5-min Rain = 0
KAM1 162331Z 20015KT 17/M03 A2985 RMK A01 T01711028  RH  026%=      5-min Rain = 0
KAM1 162332Z 21013KT 17/M03 A2985 RMK A01 T01701031  RH  025%=      5-min Rain = 0
KAM1 162333Z 20013KT 17/M03 A2985 RMK A01 T01701031  RH  025%=      5-min Rain = 0
KAM1 162334Z 21011KT 17/M03 A2985 RMK A01 T01691030  RH  025%=      5-min Rain = 0
KAM1 162335Z 21012KT 17/M03 A2985 RMK A01 T01691028  RH  026%=      5-min Rain = 0
KAM1 162336Z 21013KT 17/M03 A2985 RMK A01 T01691028  RH  026%=      5-min Rain = 0
KAM1 162337Z 21013KT 17/M03 A2985 RMK A01 T01681029  RH  026%=      5-min Rain = 0
KAM1 162338Z 21013KT 17/M03 A2985 RMK A01 T01681029  RH  026%=      5-min Rain = 0
KAM1 162339Z 21011KT 17/M03 A2985 RMK A01 T01681029  RH  026%=      5-min Rain = 0
KAM1 162340Z 21010KT 17/M03 A2985 RMK A01 T01671028  RH  026%=      5-min Rain = 0
KAM1 162341Z 22014KT 17/M03 A2985 RMK A01 T01671028  RH  026%=      5-min Rain = 0
KAM1 162342Z 22015KT 17/M03 A2985 RMK A01 T01661029  RH  026%=      5-min Rain = 0
KAM1 162343Z 22013KT 17/M03 A2985 RMK A01 T01661028  RH  026%=      5-min Rain = 0
KAM1 162344Z 22011KT 17/M03 A2985 RMK A01 T01661028  RH  026%=      5-min Rain = 0
KAM1 162345Z 21011KT 17/M03 A2985 RMK A01 T01661026  RH  027%=      5-min Rain = 0
KAM1 162346Z 21009KT 17/M03 A2985 RMK A01 T01651025  RH  027%=      5-min Rain = 0
KAM1 162347Z 22009KT 17/M02 A2985 RMK A01 T01651024  RH  027%=      5-min Rain = 0
KAM1 162348Z 22009KT 16/M02 A2985 RMK A01 T01641023  RH  028%=      5-min Rain = 0
KAM1 162349Z 21011KT 16/M02 A2985 RMK A01 T01631023  RH  028%=      5-min Rain = 0
KAM1 162350Z 21012KT 16/M02 A2985 RMK A01 T01621023  RH  028%=      5-min Rain = 0
KAM1 162351Z 21012KT 16/M02 A2985 RMK A01 T01621022  RH  028%=      5-min Rain = 0
KAM1 162352Z 22012KT 16/M02 A2985 RMK A01 T01611022  RH  028%=      5-min Rain = 0
KAM1 162353Z 22012KT 16/M02 A2985 RMK A01 T01611021  RH  029%=      5-min Rain = 0
KAM1 162354Z 21013G18KT 16/M02 A2985 RMK A01 T01601021  RH  029%=      5-min Rain = 0
KAM1 162355Z 21013KT 16/M02 A2985 RMK A01 T01591021  RH  029%=      5-min Rain = 0
KAM1 162356Z 21011KT 16/M02 A2985 RMK A01 T01591021  RH  029%=      5-min Rain = 0
KAM1 162357Z 21012KT 16/M02 A2985 RMK A01 T01581021  RH  029%=      5-min Rain = 0
KAM1 162358Z 21010KT 16/M02 A2985 RMK A01 T01581020  RH  029%=      5-min Rain = 0
KAM1 162359Z 21010KT 16/M02 A2985 RMK A01 T01571019  RH  030%=      5-min Rain = 0
KAM1 170000Z 21013KT 16/M02 A2985 RMK A01 T01551019  RH  030%=      5-min Rain = 0
KAM1 170001Z 22011KT 15/M02 A2985 RMK A01 T01541019  RH  030%=      5-min Rain = 0
KAM1 170002Z 21012KT 15/M02 A2985 RMK A01 T01541018  RH  031%=      5-min Rain = 0
KAM1 170003Z 21014KT 15/M02 A2985 RMK A01 T01531018  RH  031%=      5-min Rain = 0
KAM1 170004Z 21012KT 15/M02 A2985 RMK A01 T01531017  RH  031%=      5-min Rain = 0
KAM1 170005Z 21011KT 15/M02 A2985 RMK A01 T01521017  RH  031%=      5-min Rain = 0
KAM1 170006Z 21014KT 15/M02 A2985 RMK A01 T01521017  RH  031%=      5-min Rain = 0
KAM1 170007Z 21014KT 15/M02 A2985 RMK A01 T01511017  RH  031%=      5-min Rain = 0
KAM1 170008Z 22012KT 15/M02 A2985 RMK A01 T01511018  RH  031%=      5-min Rain = 0
KAM1 170009Z 21014KT 15/M02 A2985 RMK A01 T01501018  RH  031%=      5-min Rain = 0
KAM1 170010Z 21014KT 15/M02 A2985 RMK A01 T01491019  RH  031%=      5-min Rain = 0
KAM1 170011Z 22012KT 15/M02 A2985 RMK A01 T01481019  RH  032%=      5-min Rain = 0
KAM1 170012Z 22015KT 15/M02 A2985 RMK A01 T01471019  RH  032%=      5-min Rain = 0
KAM1 170013Z 22014KT 15/M02 A2985 RMK A01 T01451018  RH  032%=      5-min Rain = 0
KAM1 170014Z 21012KT 15/M02 A2985 RMK A01 T01451017  RH  033%=      5-min Rain = 0
KAM1 170015Z 21011KT 14/M02 A2985 RMK A01 T01431017  RH  033%=      5-min Rain = 0
KAM1 170016Z 21012KT 14/M02 A2985 RMK A01 T01411017  RH  034%=      5-min Rain = 0
KAM1 170017Z 21013KT 14/M02 A2985 RMK A01 T01401016  RH  034%=      5-min Rain = 0
KAM1 170018Z 21012KT 14/M02 A2985 RMK A01 T01391016  RH  034%=      5-min Rain = 0
KAM1 170019Z 21012KT 14/M02 A2985 RMK A01 T01381016  RH  035%=      5-min Rain = 0
KAM1 170020Z 21011KT 14/M02 A2985 RMK A01 T01371015  RH  035%=      5-min Rain = 0
KAM1 170021Z 21011KT 14/M02 A2985 RMK A01 T01351016  RH  035%=      5-min Rain = 0
KAM1 170022Z 21011KT 13/M02 A2985 RMK A01 T01341016  RH  036%=      5-min Rain = 0
KAM1 170023Z 21010KT 13/M02 A2985 RMK A01 T01321016  RH  036%=      5-min Rain = 0
KAM1 170024Z 21010KT 13/M02 A2985 RMK A01 T01311016  RH  036%=      5-min Rain = 0
KAM1 170025Z 21011KT 13/M02 A2985 RMK A01 T01291016  RH  037%=      5-min Rain = 0
KAM1 170026Z 21010KT 13/M02 A2985 RMK A01 T01291016  RH  037%=      5-min Rain = 0
KAM1 170027Z 21010KT 13/M02 A2985 RMK A01 T01281016  RH  037%=      5-min Rain = 0
KAM1 170028Z 21011KT 13/M02 A2985 RMK A01 T01271016  RH  037%=      5-min Rain = 0
KAM1 170029Z 21010KT 13/M02 A2985 RMK A01 T01271015  RH  037%=      5-min Rain = 0
KAM1 170030Z 21010KT 13/M02 A2985 RMK A01 T01251016  RH  038%=      5-min Rain = 0
KAM1 170031Z 21010KT 12/M02 A2985 RMK A01 T01241016  RH  038%=      5-min Rain = 0
KAM1 170032Z 21009KT 12/M02 A2985 RMK A01 T01231016  RH  038%=      5-min Rain = 0
KAM1 170033Z 21009KT 12/M02 A2985 RMK A01 T01211016  RH  039%=      5-min Rain = 0
KAM1 170034Z 21010KT 12/M02 A2985 RMK A01 T01191016  RH  039%=      5-min Rain = 0
KAM1 170035Z 21010KT 12/M02 A2985 RMK A01 T01181016  RH  039%=      5-min Rain = 0
KAM1 170036Z 21009KT 12/M02 A2985 RMK A01 T01171016  RH  040%=      5-min Rain = 0
KAM1 170037Z 21009KT 12/M02 A2985 RMK A01 T01161016  RH  040%=      5-min Rain = 0
KAM1 170038Z 21010KT 11/M02 A2985 RMK A01 T01141016  RH  040%=      5-min Rain = 0
KAM1 170039Z 21009KT 11/M02 A2985 RMK A01 T01141016  RH  040%=      5-min Rain = 0
KAM1 170040Z 21008KT 11/M02 A2985 RMK A01 T01141016  RH  041%=      5-min Rain = 0
KAM1 170041Z 21009KT 11/M02 A2985 RMK A01 T01121016  RH  041%=      5-min Rain = 0
KAM1 170042Z 21009KT 11/M02 A2985 RMK A01 T01111016  RH  041%=      5-min Rain = 0
KAM1 170043Z 21009KT 11/M02 A2985 RMK A01 T01101016  RH  041%=      5-min Rain = 0
KAM1 170044Z 21009KT 11/M02 A2985 RMK A01 T01091016  RH  042%=      5-min Rain = 0
KAM1 170045Z 21008KT 11/M02 A2985 RMK A01 T01071017  RH  042%=      5-min Rain = 0
KAM1 170046Z 21008KT 11/M02 A2985 RMK A01 T01071016  RH  042%=      5-min Rain = 0
KAM1 170047Z 21008KT 11/M02 A2985 RMK A01 T01061017  RH  042%=      5-min Rain = 0
KAM1 170048Z 21008KT 10/M02 A2985 RMK A01 T01041017  RH  043%=      5-min Rain = 0
KAM1 170049Z 21008KT 10/M02 A2985 RMK A01 T01031017  RH  043%=      5-min Rain = 0
KAM1 170050Z 21008KT 10/M02 A2985 RMK A01 T01021018  RH  043%=      5-min Rain = 0
KAM1 170051Z 21008KT 10/M02 A2985 RMK A01 T01001018  RH  044%=      5-min Rain = 0
KAM1 170052Z 21008KT 10/M02 A2985 RMK A01 T00991018  RH  044%=      5-min Rain = 0
KAM1 170053Z 21008KT 10/M02 A2985 RMK A01 T00971018  RH  044%=      5-min Rain = 0
KAM1 170054Z 22007KT 10/M02 A2985 RMK A01 T00961019  RH  045%=      5-min Rain = 0
KAM1 170055Z 21007KT 10/M02 A2985 RMK A01 T00951018  RH  045%=      5-min Rain = 0
KAM1 170056Z 21007KT 09/M02 A2985 RMK A01 T00931019  RH  045%=      5-min Rain = 0
KAM1 170057Z 21007KT 09/M02 A2985 RMK A01 T00921019  RH  046%=      5-min Rain = 0
KAM1 170058Z 21007KT 09/M02 A2985 RMK A01 T00911019  RH  046%=      5-min Rain = 0
KAM1 170059Z 21007KT 09/M02 A2985 RMK A01 T00901019  RH  046%=      5-min Rain = 0
KAM1 170100Z 21006KT 09/M02 A2985 RMK A01 T00891019  RH  047%=      5-min Rain = 0
KAM1 170101Z 21006KT 09/M02 A2985 RMK A01 T00881019  RH  047%=      5-min Rain = 0
KAM1 170102Z 21006KT 09/M02 A2985 RMK A01 T00871020  RH  047%=      5-min Rain = 0
KAM1 170103Z 21007KT 09/M02 A2985 RMK A01 T00861020  RH  047%=      5-min Rain = 0
KAM1 170104Z 21007KT 09/M02 A2985 RMK A01 T00851020  RH  048%=      5-min Rain = 0
KAM1 170105Z 21007KT 08/M02 A2985 RMK A01 T00841020  RH  048%=      5-min Rain = 0
KAM1 170106Z 21007KT 08/M02 A2985 RMK A01 T00831020  RH  048%=      5-min Rain = 0
KAM1 170107Z 21007KT 08/M02 A2985 RMK A01 T00821020  RH  048%=      5-min Rain = 0
KAM1 170108Z 21007KT 08/M02 A2985 RMK A01 T00811021  RH  049%=      5-min Rain = 0
KAM1 170109Z 21007KT 08/M02 A2985 RMK A01 T00801022  RH  049%=      5-min Rain = 0
KAM1 170110Z 21007KT 08/M02 A2985 RMK A01 T00791022  RH  049%=      5-min Rain = 0
KAM1 170111Z 21007KT 08/M02 A2985 RMK A01 T00781022  RH  049%=      5-min Rain = 0
KAM1 170112Z 21007KT 08/M02 A2985 RMK A01 T00771022  RH  049%=      5-min Rain = 0
KAM1 170113Z 21007KT 08/M02 A2985 RMK A01 T00761022  RH  050%=      5-min Rain = 0
KAM1 170114Z 21007KT 08/M02 A2985 RMK A01 T00761022  RH  050%=      5-min Rain = 0
KAM1 170115Z 21007KT 08/M02 A2985 RMK A01 T00751023  RH  050%=      5-min Rain = 0
KAM1 170116Z 21007KT 07/M02 A2985 RMK A01 T00741023  RH  050%=      5-min Rain = 0
KAM1 170117Z 21007KT 07/M02 A2985 RMK A01 T00731023  RH  050%=      5-min Rain = 0
KAM1 170118Z 21007KT 07/M02 A2985 RMK A01 T00731024  RH  050%=      5-min Rain = 0
KAM1 170119Z 21006KT 07/M02 A2985 RMK A01 T00721024  RH  051%=      5-min Rain = 0
KAM1 170120Z 21006KT 07/M02 A2985 RMK A01 T00711024  RH  051%=      5-min Rain = 0
KAM1 170121Z 21006KT 07/M03 A2985 RMK A01 T00701025  RH  051%=      5-min Rain = 0
KAM1 170122Z 21006KT 07/M03 A2985 RMK A01 T00691025  RH  051%=      5-min Rain = 0
KAM1 170123Z 21006KT 07/M02 A2985 RMK A01 T00691024  RH  051%=      5-min Rain = 0
KAM1 170124Z 21006KT 07/M03 A2985 RMK A01 T00691025  RH  051%=      5-min Rain = 0
KAM1 170125Z 21006KT 07/M03 A2985 RMK A01 T00691025  RH  051%=      5-min Rain = 0
KAM1 170126Z 21006KT 07/M03 A2985 RMK A01 T00691025  RH  051%=      5-min Rain = 0
KAM1 170127Z 21006KT 07/M03 A2985 RMK A01 T00691025  RH  051%=      5-min Rain = 0
KAM1 170128Z 21006KT 07/M03 A2985 RMK A01 T00691025  RH  051%=      5-min Rain = 0
KAM1 170129Z 21006KT 07/M02 A2985 RMK A01 T00701024  RH  051%=      5-min Rain = 0
KAM1 170130Z 21006KT 07/M03 A2985 RMK A01 T00701025  RH  051%=      5-min Rain = 0
KAM1 170131Z 21006KT 07/M03 A2985 RMK A01 T00711025  RH  051%=      5-min Rain = 0
KAM1 170132Z 21006KT 07/M02 A2985 RMK A01 T00711024  RH  051%=      5-min Rain = 0
KAM1 170133Z 21006KT 07/M02 A2985 RMK A01 T00711024  RH  051%=      5-min Rain = 0
KAM1 170134Z 21005KT 07/M02 A2985 RMK A01 T00711024  RH  051%=      5-min Rain = 0
KAM1 170135Z 21005KT 07/M02 A2985 RMK A01 T00711023  RH  051%=      5-min Rain = 0
KAM1 170136Z 21005KT 07/M02 A2985 RMK A01 T00711023  RH  051%=      5-min Rain = 0
KAM1 170137Z 21005KT 07/M02 A2985 RMK A01 T00721023  RH  051%=      5-min Rain = 0
KAM1 170138Z 21005KT 07/M02 A2985 RMK A01 T00711023  RH  051%=      5-min Rain = 0
KAM1 170139Z 21005KT 07/M02 A2985 RMK A01 T00721022  RH  051%=      5-min Rain = 0
KAM1 170140Z 21005KT 07/M02 A2985 RMK A01 T00721022  RH  051%=      5-min Rain = 0
KAM1 170141Z 21005KT 07/M02 A2985 RMK A01 T00731021  RH  051%=      5-min Rain = 0
KAM1 170142Z 21005KT 07/M02 A2985 RMK A01 T00731021  RH  051%=      5-min Rain = 0
KAM1 170143Z 21005KT 07/M02 A2985 RMK A01 T00731022  RH  051%=      5-min Rain = 0
KAM1 170144Z 21005KT 07/M02 A2985 RMK A01 T00741021  RH  051%=      5-min Rain = 0
KAM1 170145Z 21005KT 07/M02 A2985 RMK A01 T00741021  RH  051%=      5-min Rain = 0
KAM1 170146Z 21005KT 07/M02 A2985 RMK A01 T00741021  RH  051%=      5-min Rain = 0
KAM1 170147Z 21005KT 07/M02 A2985 RMK A01 T00731022  RH  051%=      5-min Rain = 0
KAM1 170148Z 21005KT 07/M02 A2985 RMK A01 T00731022  RH  051%=      5-min Rain = 0
KAM1 170149Z 22005KT 07/M02 A2985 RMK A01 T00721022  RH  051%=      5-min Rain = 0
KAM1 170150Z 22005KT 07/M02 A2985 RMK A01 T00721022  RH  051%=      5-min Rain = 0
KAM1 170151Z 22005KT 07/M02 A2985 RMK A01 T00721022  RH  051%=      5-min Rain = 0
KAM1 170152Z 22005KT 07/M02 A2985 RMK A01 T00711023  RH  051%=      5-min Rain = 0
KAM1 170153Z 22004KT 07/M02 A2985 RMK A01 T00701023  RH  052%=      5-min Rain = 0
KAM1 170154Z 22004KT 07/M02 A2985 RMK A01 T00681024  RH  052%=      5-min Rain = 0
KAM1 170155Z 22004KT 07/M02 A2985 RMK A01 T00671023  RH  052%=      5-min Rain = 0
KAM1 170156Z 22004KT 07/M02 A2985 RMK A01 T00661023  RH  053%=      5-min Rain = 0
KAM1 170157Z 22004KT 07/M02 A2985 RMK A01 T00651023  RH  053%=      5-min Rain = 0
KAM1 170158Z 22004KT 07/M02 A2985 RMK A01 T00651023  RH  053%=      5-min Rain = 0
KAM1 170159Z 22004KT 07/M02 A2985 RMK A01 T00651022  RH  054%=      5-min Rain = 0
KAM1 170200Z 22004KT 06/M02 A2985 RMK A01 T00641022  RH  054%=      5-min Rain = 0
KAM1 170201Z 22004KT 06/M02 A2985 RMK A01 T00641022  RH  054%=      5-min Rain = 0
KAM1 170202Z 22004KT 07/M02 A2985 RMK A01 T00651022  RH  054%=      5-min Rain = 0
KAM1 170203Z 22004KT 07/M02 A2985 RMK A01 T00651021  RH  054%=      5-min Rain = 0
KAM1 170204Z 21004KT 07/M02 A2985 RMK A01 T00661021  RH  054%=      5-min Rain = 0
KAM1 170205Z 22004KT 07/M02 A2985 RMK A01 T00671021  RH  054%=      5-min Rain = 0
KAM1 170206Z 22004KT 07/M02 A2985 RMK A01 T00681020  RH  053%=      5-min Rain = 0
KAM1 170207Z 21004KT 07/M02 A2985 RMK A01 T00681020  RH  053%=      5-min Rain = 0
KAM1 170208Z 21004KT 07/M02 A2985 RMK A01 T00691020  RH  053%=      5-min Rain = 0
KAM1 170209Z 21004KT 07/M02 A2985 RMK A01 T00691020  RH  053%=      5-min Rain = 0
KAM1 170210Z 21004KT 07/M02 A2985 RMK A01 T00701020  RH  053%=      5-min Rain = 0
KAM1 170211Z 21005KT 07/M02 A2985 RMK A01 T00701020  RH  053%=      5-min Rain = 0
KAM1 170212Z 21005KT 07/M02 A2985 RMK A01 T00701020  RH  053%=      5-min Rain = 0
KAM1 170213Z 21005KT 07/M02 A2985 RMK A01 T00691020  RH  053%=      5-min Rain = 0
KAM1 170214Z 21005KT 07/M02 A2985 RMK A01 T00701020  RH  053%=      5-min Rain = 0
KAM1 170215Z 20005KT 07/M02 A2985 RMK A01 T00701020  RH  053%=      5-min Rain = 0
KAM1 170216Z 20005KT 07/M02 A2985 RMK A01 T00701020  RH  053%=      5-min Rain = 0
KAM1 170217Z 21005KT 07/M02 A2985 RMK A01 T00701019  RH  053%=      5-min Rain = 0
KAM1 170218Z 21005KT 07/M02 A2985 RMK A01 T00701019  RH  053%=      5-min Rain = 0
KAM1 170219Z 20005KT 07/M02 A2985 RMK A01 T00701020  RH  053%=      5-min Rain = 0
KAM1 170220Z 20005KT 07/M02 A2985 RMK A01 T00691019  RH  053%=      5-min Rain = 0
KAM1 170221Z 20005KT 07/M02 A2985 RMK A01 T00691019  RH  054%=      5-min Rain = 0
KAM1 170222Z 20005KT 07/M02 A2984 RMK A01 T00691018  RH  054%=      5-min Rain = 0
KAM1 170223Z 21006KT 07/M02 A2984 RMK A01 T00691019  RH  053%=      5-min Rain = 0
KAM1 170224Z 21006KT 07/M02 A2984 RMK A01 T00691019  RH  053%=      5-min Rain = 0
KAM1 170225Z 21006KT 07/M02 A2984 RMK A01 T00681020  RH  054%=      5-min Rain = 0
KAM1 170226Z 21006KT 07/M02 A2984 RMK A01 T00661021  RH  054%=      5-min Rain = 0
KAM1 170227Z 21006KT 07/M02 A2984 RMK A01 T00651021  RH  054%=      5-min Rain = 0
KAM1 170228Z 20005KT 06/M02 A2984 RMK A01 T00631023  RH  054%=      5-min Rain = 0
KAM1 170229Z 21005KT 06/M02 A2984 RMK A01 T00611024  RH  055%=      5-min Rain = 0
KAM1 170230Z 21005KT 06/M02 A2984 RMK A01 T00591024  RH  055%=      5-min Rain = 0
KAM1 170231Z 21005KT 06/M02 A2984 RMK A01 T00571024  RH  056%=      5-min Rain = 0
KAM1 170232Z 21005KT 06/M03 A2984 RMK A01 T00551025  RH  056%=      5-min Rain = 0
KAM1 170233Z 21005KT 05/M03 A2984 RMK A01 T00541025  RH  057%=      5-min Rain = 0
KAM1 170234Z 21005KT 05/M02 A2984 RMK A01 T00541024  RH  057%=      5-min Rain = 0
KAM1 170235Z 21005KT 05/M02 A2984 RMK A01 T00541023  RH  057%=      5-min Rain = 0
KAM1 170236Z 21004KT 05/M02 A2984 RMK A01 T00531023  RH  058%=      5-min Rain = 0
KAM1 170237Z 20005KT 05/M02 A2984 RMK A01 T00531023  RH  058%=      5-min Rain = 0
KAM1 170238Z 20005KT 05/M02 A2984 RMK A01 T00531022  RH  058%=      5-min Rain = 0
KAM1 170239Z 20005KT 05/M02 A2984 RMK A01 T00531022  RH  058%=      5-min Rain = 0
KAM1 170240Z 20005KT 05/M02 A2984 RMK A01 T00531022  RH  059%=      5-min Rain = 0
KAM1 170241Z 20004KT 05/M02 A2984 RMK A01 T00531021  RH  059%=      5-min Rain = 0
KAM1 170242Z 20004KT 05/M02 A2984 RMK A01 T00521022  RH  059%=      5-min Rain = 0
KAM1 170243Z 19004KT 05/M02 A2984 RMK A01 T00521021  RH  059%=      5-min Rain = 0
KAM1 170244Z 19004KT 05/M02 A2984 RMK A01 T00521021  RH  059%=      5-min Rain = 0
KAM1 170245Z 19004KT 05/M02 A2984 RMK A01 T00511021  RH  060%=      5-min Rain = 0
KAM1 170246Z 19004KT 05/M02 A2984 RMK A01 T00501020  RH  060%=      5-min Rain = 0
KAM1 170247Z 19005KT 05/M02 A2984 RMK A01 T00501019  RH  061%=      5-min Rain = 0
KAM1 170248Z 18005KT 05/M02 A2984 RMK A01 T00521017  RH  061%=      5-min Rain = 0
KAM1 170249Z 18005KT 05/M02 A2984 RMK A01 T00531016  RH  061%=      5-min Rain = 0
KAM1 170250Z 17005KT 06/M02 A2984 RMK A01 T00551015  RH  060%=      5-min Rain = 0
KAM1 170251Z 17005KT 06/M02 A2984 RMK A01 T00571015  RH  060%=      5-min Rain = 0
KAM1 170252Z 17006KT 06/M02 A2984 RMK A01 T00571015  RH  060%=      5-min Rain = 0
KAM1 170253Z 17006KT 06/M02 A2984 RMK A01 T00561015  RH  060%=      5-min Rain = 0
KAM1 170254Z 17006KT 05/M02 A2984 RMK A01 T00531016  RH  061%=      5-min Rain = 0
KAM1 170255Z 17006KT 05/M02 A2984 RMK A01 T00501018  RH  061%=      5-min Rain = 0
KAM1 170256Z 17006KT 05/M02 A2984 RMK A01 T00471020  RH  062%=      5-min Rain = 0
KAM1 170257Z 17006KT 04/M02 A2984 RMK A01 T00441021  RH  063%=      5-min Rain = 0
KAM1 170258Z 16006KT 04/M02 A2984 RMK A01 T00411022  RH  063%=      5-min Rain = 0
KAM1 170259Z 17006KT 04/M03 A2984 RMK A01 T00371025  RH  064%=      5-min Rain = 0
KAM1 170300Z 17006KT 03/M03 A2984 RMK A01 T00341026  RH  065%=      5-min Rain = 0
KAM1 170301Z 17006KT 03/M03 A2984 RMK A01 T00311025  RH  066%=      5-min Rain = 0
KAM1 170302Z 17006KT 03/M03 A2984 RMK A01 T00301025  RH  067%=      5-min Rain = 0
KAM1 170303Z 17006KT 03/M02 A2984 RMK A01 T00281024  RH  068%=      5-min Rain = 0
KAM1 170304Z 17006KT 03/M02 A2984 RMK A01 T00281024  RH  069%=      5-min Rain = 0
KAM1 170305Z 17007KT 03/M02 A2984 RMK A01 T00271024  RH  069%=      5-min Rain = 0
KAM1 170306Z 17007KT 03/M02 A2984 RMK A01 T00271023  RH  070%=      5-min Rain = 0
KAM1 170307Z 18007KT 03/M02 A2984 RMK A01 T00261022  RH  070%=      5-min Rain = 0
KAM1 170308Z 18007KT 03/M02 A2984 RMK A01 T00261021  RH  071%=      5-min Rain = 0
KAM1 170309Z 18007KT 03/M02 A2984 RMK A01 T00271020  RH  071%=      5-min Rain = 0
KAM1 170310Z 18007KT 03/M02 A2984 RMK A01 T00291019  RH  071%=      5-min Rain = 0
KAM1 170311Z 18006KT 03/M02 A2984 RMK A01 T00301019  RH  070%=      5-min Rain = 0
KAM1 170312Z 17006KT 03/M02 A2984 RMK A01 T00301019  RH  070%=      5-min Rain = 0
KAM1 170313Z 17006KT 03/M02 A2984 RMK A01 T00301019  RH  070%=      5-min Rain = 0
KAM1 170314Z 17006KT 03/M02 A2984 RMK A01 T00301020  RH  070%=      5-min Rain = 0
KAM1 170315Z 17007KT 03/M02 A2984 RMK A01 T00301020  RH  069%=      5-min Rain = 0
KAM1 170316Z 17006KT 03/M02 A2984 RMK A01 T00301020  RH  069%=      5-min Rain = 0
KAM1 170317Z 17005KT 03/M02 A2984 RMK A01 T00301021  RH  069%=      5-min Rain = 0
KAM1 170318Z 17005KT 03/M02 A2984 RMK A01 T00291023  RH  069%=      5-min Rain = 0
KAM1 170319Z 17003KT 03/M03 A2984 RMK A01 T00261026  RH  069%=      5-min Rain = 0
KAM1 170320Z 17003KT 02/M03 A2984 RMK A01 T00211028  RH  070%=      5-min Rain = 0
KAM1 170321Z 17003KT 02/M03 A2984 RMK A01 T00191025  RH  073%=      5-min Rain = 0
KAM1 170322Z 18003KT 02/M02 A2984 RMK A01 T00191023  RH  073%=      5-min Rain = 0
KAM1 170323Z 18003KT 02/M02 A2984 RMK A01 T00201022  RH  074%=      5-min Rain = 0
KAM1 170324Z 18003KT 02/M02 A2984 RMK A01 T00211020  RH  074%=      5-min Rain = 0
KAM1 170325Z 19003KT 02/M02 A2984 RMK A01 T00231019  RH  074%=      5-min Rain = 0
KAM1 170326Z 19003KT 02/M02 A2984 RMK A01 T00241018  RH  074%=      5-min Rain = 0
KAM1 170327Z 18004KT 02/M02 A2984 RMK A01 T00241018  RH  074%=      5-min Rain = 0
KAM1 170328Z 18005KT 02/M02 A2984 RMK A01 T00241018  RH  074%=      5-min Rain = 0
KAM1 170329Z 18006KT 03/M02 A2985 RMK A01 T00261017  RH  073%=      5-min Rain = 0
KAM1 170330Z 18007KT 03/M02 A2985 RMK A01 T00281016  RH  073%=      5-min Rain = 0
KAM1 170331Z 19008KT 03/M02 A2985 RMK A01 T00291018  RH  071%=      5-min Rain = 0
KAM1 170332Z 19008KT 03/M02 A2985 RMK A01 T00291020  RH  070%=      5-min Rain = 0
KAM1 170333Z 19008KT 03/M02 A2984 RMK A01 T00281022  RH  070%=      5-min Rain = 0
KAM1 170334Z 19008KT 03/M02 A2985 RMK A01 T00261023  RH  070%=      5-min Rain = 0
KAM1 170335Z 19007KT 03/M02 A2984 RMK A01 T00251022  RH  071%=      5-min Rain = 0
KAM1 170336Z 19007KT 03/M02 A2984 RMK A01 T00251020  RH  072%=      5-min Rain = 0
KAM1 170337Z 19007KT 03/M02 A2984 RMK A01 T00261019  RH  072%=      5-min Rain = 0
KAM1 170338Z 19007KT 03/M02 A2984 RMK A01 T00271017  RH  073%=      5-min Rain = 0
KAM1 170339Z 20007KT 03/M02 A2984 RMK A01 T00291015  RH  073%=      5-min Rain = 0
KAM1 170340Z 19006KT 03/M02 A2984 RMK A01 T00301015  RH  072%=      5-min Rain = 0
KAM1 170341Z 19006KT 03/M01 A2984 RMK A01 T00321014  RH  072%=      5-min Rain = 0
KAM1 170342Z 19007KT 03/M01 A2984 RMK A01 T00331014  RH  072%=      5-min Rain = 0
KAM1 170343Z 19007KT 03/M01 A2984 RMK A01 T00341013  RH  071%=      5-min Rain = 0
KAM1 170344Z 20007KT 04/M01 A2984 RMK A01 T00351013  RH  071%=      5-min Rain = 0
KAM1 170345Z 19007KT 04/M01 A2984 RMK A01 T00351013  RH  070%=      5-min Rain = 0
KAM1 170346Z 19007KT 04/M01 A2984 RMK A01 T00361013  RH  070%=      5-min Rain = 0
KAM1 170347Z 19006KT 04/M01 A2984 RMK A01 T00361013  RH  070%=      5-min Rain = 0
KAM1 170348Z 19007KT 04/M01 A2984 RMK A01 T00361014  RH  070%=      5-min Rain = 0
KAM1 170349Z 20007KT 04/M01 A2984 RMK A01 T00361013  RH  070%=      5-min Rain = 0
KAM1 170350Z 20008KT 04/M01 A2984 RMK A01 T00361014  RH  070%=      5-min Rain = 0
KAM1 170351Z 20008KT 04/M01 A2984 RMK A01 T00371014  RH  069%=      5-min Rain = 0
KAM1 170352Z 20009KT 04/M01 A2984 RMK A01 T00401012  RH  069%=      5-min Rain = 0
KAM1 170353Z 21010KT 04/M01 A2984 RMK A01 T00441011  RH  067%=      5-min Rain = 0
KAM1 170354Z 21010KT 05/M01 A2984 RMK A01 T00491010  RH  066%=      5-min Rain = 0
KAM1 170355Z 21010KT 05/M01 A2984 RMK A01 T00541009  RH  064%=      5-min Rain = 0
KAM1 170356Z 21011KT 06/M01 A2984 RMK A01 T00581009  RH  062%=      5-min Rain = 0
KAM1 170357Z 21012KT 06/M01 A2984 RMK A01 T00611009  RH  061%=      5-min Rain = 0
KAM1 170358Z 21011KT 06/M01 A2984 RMK A01 T00641009  RH  059%=      5-min Rain = 0
KAM1 170359Z 21011KT 07/M01 A2984 RMK A01 T00671009  RH  058%=      5-min Rain = 0
KAM1 170400Z 21010KT 07/M01 A2984 RMK A01 T00671010  RH  058%=      5-min Rain = 0
KAM1 170401Z 21011KT 07/M01 A2984 RMK A01 T00671010  RH  058%=      5-min Rain = 0
KAM1 170402Z 21010KT 07/M01 A2984 RMK A01 T00671010  RH  058%=      5-min Rain = 0
KAM1 170403Z 21010KT 07/M01 A2984 RMK A01 T00661011  RH  058%=      5-min Rain = 0
KAM1 170404Z 21010KT 07/M01 A2984 RMK A01 T00661011  RH  058%=      5-min Rain = 0
KAM1 170405Z 21010KT 07/M01 A2984 RMK A01 T00661011  RH  058%=      5-min Rain = 0
KAM1 170406Z 21011KT 07/M01 A2984 RMK A01 T00661011  RH  058%=      5-min Rain = 0
KAM1 170407Z 21011KT 07/M01 A2984 RMK A01 T00661011  RH  058%=      5-min Rain = 0
KAM1 170408Z 21011KT 07/M01 A2984 RMK A01 T00661011  RH  058%=      5-min Rain = 0
KAM1 170409Z 21010KT 07/M01 A2984 RMK A01 T00661012  RH  058%=      5-min Rain = 0
KAM1 170410Z 21010KT 07/M01 A2984 RMK A01 T00661011  RH  058%=      5-min Rain = 0
KAM1 170411Z 21011KT 07/M01 A2984 RMK A01 T00651012  RH  058%=      5-min Rain = 0
KAM1 170412Z 21010KT 06/M01 A2984 RMK A01 T00641012  RH  058%=      5-min Rain = 0
KAM1 170413Z 21010KT 06/M01 A2984 RMK A01 T00641012  RH  058%=      5-min Rain = 0
KAM1 170414Z 21011KT 06/M01 A2984 RMK A01 T00631012  RH  058%=      5-min Rain = 0
KAM1 170415Z 21010KT 06/M01 A2984 RMK A01 T00641012  RH  058%=      5-min Rain = 0
KAM1 170416Z 21010KT 06/M01 A2984 RMK A01 T00641012  RH  058%=      5-min Rain = 0
KAM1 170417Z 21011KT 06/M01 A2984 RMK A01 T00631012  RH  058%=      5-min Rain = 0
KAM1 170418Z 21012KT 06/M01 A2984 RMK A01 T00631013  RH  059%=      5-min Rain = 0
KAM1 170419Z 21010KT 06/M01 A2983 RMK A01 T00631012  RH  059%=      5-min Rain = 0
KAM1 170420Z 21011KT 06/M01 A2983 RMK A01 T00621013  RH  059%=      5-min Rain = 0
KAM1 170421Z 21011KT 06/M01 A2983 RMK A01 T00621013  RH  059%=      5-min Rain = 0
KAM1 170422Z 21011KT 06/M01 A2983 RMK A01 T00621012  RH  059%=      5-min Rain = 0
KAM1 170423Z 21011KT 06/M01 A2983 RMK A01 T00611013  RH  059%=      5-min Rain = 0
KAM1 170424Z 21012KT 06/M01 A2983 RMK A01 T00611013  RH  059%=      5-min Rain = 0
KAM1 170425Z 21010KT 06/M01 A2983 RMK A01 T00601013  RH  059%=      5-min Rain = 0
KAM1 170426Z 21012KT 06/M01 A2983 RMK A01 T00601013  RH  060%=      5-min Rain = 0
KAM1 170427Z 21011KT 06/M01 A2983 RMK A01 T00591013  RH  060%=      5-min Rain = 0
KAM1 170428Z 21010KT 06/M01 A2983 RMK A01 T00591013  RH  060%=      5-min Rain = 0
KAM1 170429Z 21010KT 06/M01 A2983 RMK A01 T00581013  RH  060%=      5-min Rain = 0
KAM1 170430Z 21010KT 06/M01 A2983 RMK A01 T00571014  RH  060%=      5-min Rain = 0
KAM1 170431Z 21010KT 06/M01 A2983 RMK A01 T00571013  RH  061%=      5-min Rain = 0
KAM1 170432Z 22010KT 06/M01 A2983 RMK A01 T00561013  RH  061%=      5-min Rain = 0
KAM1 170433Z 21009KT 06/M01 A2983 RMK A01 T00551014  RH  061%=      5-min Rain = 0
KAM1 170434Z 21009KT 06/M01 A2983 RMK A01 T00551014  RH  061%=      5-min Rain = 0
KAM1 170435Z 21009KT 05/M01 A2983 RMK A01 T00541014  RH  061%=      5-min Rain = 0
KAM1 170436Z 21010KT 05/M01 A2983 RMK A01 T00541014  RH  062%=      5-min Rain = 0
KAM1 170437Z 21010KT 05/M01 A2983 RMK A01 T00531014  RH  062%=      5-min Rain = 0
KAM1 170438Z 21009KT 05/M01 A2983 RMK A01 T00531014  RH  062%=      5-min Rain = 0
KAM1 170439Z 21009KT 05/M01 A2983 RMK A01 T00531014  RH  062%=      5-min Rain = 0
KAM1 170440Z 21009KT 05/M01 A2983 RMK A01 T00521014  RH  062%=      5-min Rain = 0
KAM1 170441Z 21009KT 05/M02 A2983 RMK A01 T00511015  RH  062%=      5-min Rain = 0
KAM1 170442Z 21009KT 05/M01 A2983 RMK A01 T00511014  RH  063%=      5-min Rain = 0
KAM1 170443Z 21009KT 05/M02 A2983 RMK A01 T00511015  RH  063%=      5-min Rain = 0
KAM1 170444Z 21009KT 05/M02 A2983 RMK A01 T00501015  RH  063%=      5-min Rain = 0
KAM1 170445Z 21009KT 05/M02 A2983 RMK A01 T00501015  RH  063%=      5-min Rain = 0
KAM1 170446Z 21009KT 05/M02 A2983 RMK A01 T00501015  RH  063%=      5-min Rain = 0
KAM1 170447Z 21009KT 05/M02 A2983 RMK A01 T00491015  RH  063%=      5-min Rain = 0
KAM1 170448Z 21009KT 05/M02 A2983 RMK A01 T00491015  RH  063%=      5-min Rain = 0
KAM1 170449Z 21009KT 05/M02 A2983 RMK A01 T00491015  RH  063%=      5-min Rain = 0
KAM1 170450Z 21009KT 05/M02 A2983 RMK A01 T00491015  RH  063%=      5-min Rain = 0
KAM1 170451Z 21009KT 05/M02 A2983 RMK A01 T00481016  RH  063%=      5-min Rain = 0
KAM1 170452Z 21009KT 05/M02 A2983 RMK A01 T00481015  RH  064%=      5-min Rain = 0
KAM1 170453Z 21009KT 05/M02 A2983 RMK A01 T00481015  RH  064%=      5-min Rain = 0
KAM1 170454Z 21010KT 05/M02 A2983 RMK A01 T00481015  RH  064%=      5-min Rain = 0
KAM1 170455Z 21009KT 05/M02 A2983 RMK A01 T00491015  RH  063%=      5-min Rain = 0
KAM1 170456Z 21009KT 05/M02 A2983 RMK A01 T00491015  RH  063%=      5-min Rain = 0
KAM1 170457Z 20010KT 05/M02 A2983 RMK A01 T00481015  RH  063%=      5-min Rain = 0
KAM1 170458Z 21009KT 05/M02 A2983 RMK A01 T00481015  RH  064%=      5-min Rain = 0
KAM1 170459Z 21010KT 05/M02 A2983 RMK A01 T00481015  RH  064%=      5-min Rain = 0
KAM1 170500Z 21010KT 05/M02 A2983 RMK A01 T00491015  RH  064%=      5-min Rain = 0
KAM1 170501Z 21009KT 05/M01 A2983 RMK A01 T00491014  RH  063%=      5-min Rain = 0
KAM1 170502Z 21010KT 05/M01 A2983 RMK A01 T00491014  RH  063%=      5-min Rain = 0
KAM1 170503Z 21010KT 05/M01 A2983 RMK A01 T00491014  RH  063%=      5-min Rain = 0
KAM1 170504Z 21010KT 05/M01 A2983 RMK A01 T00501014  RH  063%=      5-min Rain = 0
KAM1 170505Z 21010KT 05/M01 A2983 RMK A01 T00501014  RH  063%=      5-min Rain = 0
KAM1 170506Z 21009KT 05/M01 A2983 RMK A01 T00501014  RH  063%=      5-min Rain = 0
KAM1 170507Z 21011KT 05/M01 A2982 RMK A01 T00501014  RH  063%=      5-min Rain = 0
KAM1 170508Z 21010KT 05/M02 A2982 RMK A01 T00501015  RH  063%=      5-min Rain = 0
KAM1 170509Z 21010KT 05/M02 A2982 RMK A01 T00501015  RH  063%=      5-min Rain = 0
KAM1 170510Z 21010KT 05/M02 A2982 RMK A01 T00501015  RH  063%=      5-min Rain = 0
KAM1 170511Z 21011KT 05/M01 A2982 RMK A01 T00511014  RH  063%=      5-min Rain = 0
KAM1 170512Z 21010KT 05/M01 A2982 RMK A01 T00511014  RH  063%=      5-min Rain = 0
KAM1 170513Z 22010KT 05/M01 A2982 RMK A01 T00521014  RH  062%=      5-min Rain = 0
KAM1 170514Z 21011KT 05/M01 A2982 RMK A01 T00531014  RH  062%=      5-min Rain = 0
KAM1 170515Z 22010KT 05/M01 A2982 RMK A01 T00541014  RH  062%=      5-min Rain = 0
KAM1 170516Z 22011KT 05/M01 A2982 RMK A01 T00541014  RH  062%=      5-min Rain = 0
KAM1 170517Z 22010KT 05/M01 A2982 RMK A01 T00541014  RH  062%=      5-min Rain = 0
KAM1 170518Z 22010KT 05/M01 A2982 RMK A01 T00531014  RH  062%=      5-min Rain = 0
KAM1 170519Z 22010KT 05/M01 A2982 RMK A01 T00531014  RH  062%=      5-min Rain = 0
KAM1 170520Z 22010KT 05/M01 A2982 RMK A01 T00531014  RH  062%=      5-min Rain = 0
KAM1 170521Z 22010KT 05/M01 A2982 RMK A01 T00531014  RH  062%=      5-min Rain = 0
KAM1 170522Z 22009KT 05/M01 A2982 RMK A01 T00531014  RH  062%=      5-min Rain = 0
KAM1 170523Z 22009KT 05/M01 A2982 RMK A01 T00531014  RH  062%=      5-min Rain = 0
KAM1 170524Z 22010KT 05/M02 A2982 RMK A01 T00531015  RH  062%=      5-min Rain = 0
KAM1 170525Z 22009KT 05/M02 A2982 RMK A01 T00531015  RH  062%=      5-min Rain = 0
KAM1 170526Z 22010KT 05/M02 A2982 RMK A01 T00531015  RH  061%=      5-min Rain = 0
KAM1 170527Z 22009KT 05/M02 A2982 RMK A01 T00531015  RH  061%=      5-min Rain = 0
KAM1 170528Z 22008KT 05/M02 A2982 RMK A01 T00531015  RH  061%=      5-min Rain = 0
KAM1 170529Z 22008KT 05/M02 A2982 RMK A01 T00531016  RH  061%=      5-min Rain = 0
KAM1 170530Z 22008KT 05/M02 A2982 RMK A01 T00521016  RH  061%=      5-min Rain = 0
KAM1 170531Z 22007KT 05/M02 A2982 RMK A01 T00511017  RH  062%=      5-min Rain = 0
KAM1 170532Z 22008KT 05/M02 A2982 RMK A01 T00501017  RH  062%=      5-min Rain = 0
KAM1 170533Z 22008KT 05/M02 A2982 RMK A01 T00481018  RH  062%=      5-min Rain = 0
KAM1 170534Z 22007KT 05/M02 A2982 RMK A01 T00481018  RH  062%=      5-min Rain = 0
KAM1 170535Z 22007KT 05/M02 A2982 RMK A01 T00471018  RH  063%=      5-min Rain = 0
KAM1 170536Z 22008KT 05/M02 A2982 RMK A01 T00461018  RH  063%=      5-min Rain = 0
KAM1 170537Z 22008KT 05/M02 A2982 RMK A01 T00461018  RH  063%=      5-min Rain = 0
KAM1 170538Z 22010KT 05/M02 A2982 RMK A01 T00471018  RH  063%=      5-min Rain = 0
KAM1 170539Z 22010KT 05/M02 A2982 RMK A01 T00481018  RH  062%=      5-min Rain = 0
KAM1 170540Z 22010KT 05/M02 A2982 RMK A01 T00511017  RH  062%=      5-min Rain = 0
KAM1 170541Z 22011KT 05/M02 A2981 RMK A01 T00521017  RH  061%=      5-min Rain = 0
KAM1 170542Z 22011KT 05/M02 A2981 RMK A01 T00541017  RH  060%=      5-min Rain = 0
KAM1 170543Z 22011KT 06/M02 A2981 RMK A01 T00561017  RH  060%=      5-min Rain = 0
KAM1 170544Z 22010KT 06/M02 A2981 RMK A01 T00571017  RH  059%=      5-min Rain = 0
KAM1 170545Z 22011KT 06/M02 A2981 RMK A01 T00571017  RH  059%=      5-min Rain = 0
KAM1 170546Z 22011KT 06/M02 A2981 RMK A01 T00571017  RH  059%=      5-min Rain = 0
KAM1 170547Z 22011KT 06/M02 A2981 RMK A01 T00581017  RH  059%=      5-min Rain = 0
KAM1 170548Z 22011KT 06/M02 A2981 RMK A01 T00591017  RH  058%=      5-min Rain = 0
KAM1 170549Z 22009KT 06/M02 A2981 RMK A01 T00591017  RH  058%=      5-min Rain = 0
KAM1 170550Z 22010KT 06/M02 A2981 RMK A01 T00581018  RH  058%=      5-min Rain = 0
KAM1 170551Z 22011KT 06/M02 A2981 RMK A01 T00571018  RH  059%=      5-min Rain = 0
KAM1 170552Z 22010KT 06/M02 A2981 RMK A01 T00571018  RH  059%=      5-min Rain = 0
KAM1 170553Z 22010KT 06/M02 A2981 RMK A01 T00571018  RH  058%=      5-min Rain = 0
KAM1 170554Z 22011KT 06/M02 A2981 RMK A01 T00581018  RH  058%=      5-min Rain = 0
KAM1 170555Z 22010KT 06/M02 A2981 RMK A01 T00581018  RH  058%=      5-min Rain = 0
KAM1 170556Z 22011KT 06/M02 A2981 RMK A01 T00581018  RH  058%=      5-min Rain = 0
KAM1 170557Z 22010KT 06/M02 A2981 RMK A01 T00581018  RH  058%=      5-min Rain = 0
KAM1 170558Z 22011KT 06/M02 A2981 RMK A01 T00581018  RH  058%=      5-min Rain = 0
KAM1 170559Z 22009KT 06/M02 A2981 RMK A01 T00581019  RH  058%=      5-min Rain = 0

Page generated in 0.0837 seconds.